Wetterdaten: Mittwoch, 06.11.2013
Datum Zeit Temp. Aussen +5cm Feuchte Auss Luftdruck Regen Sonnenschein Regendauer UV Solar Windben
06.11.2013 00:00 8,1 C 6,1 C 95 % 994,6 hPa 0,0 l/m 0 min 0 min 0,0 UV-I 0 W/m 7,7 km/h (2 Bft)
06.11.2013 00:02 8,1 C 6,1 C 95 % 994,6 hPa 0,0 l/m 0 min 0 min 0,0 UV-I 0 W/m 0,0 km/h (0 Bft)
06.11.2013 00:06 8,0 C 6,1 C 95 % 994,7 hPa 0,0 l/m 0 min 0 min 0,0 UV-I 0 W/m 15,4 km/h (3 Bft)
06.11.2013 00:08 7,9 C 6,1 C 95 % 994,8 hPa 0,0 l/m 0 min 0 min 0,0 UV-I 0 W/m 10,3 km/h (2 Bft)
06.11.2013 00:10 7,9 C 6,1 C 95 % 994,8 hPa 0,0 l/m 0 min 0 min 0,0 UV-I 0 W/m 15,4 km/h (3 Bft)
06.11.2013 00:12 7,9 C 6,1 C 95 % 994,8 hPa 0,0 l/m 0 min 0 min 0,0 UV-I 0 W/m 20,6 km/h (4 Bft)
06.11.2013 00:14 7,9 C 6,1 C 95 % 995,0 hPa 0,0 l/m 0 min 0 min 0,0 UV-I 0 W/m 28,3 km/h (4 Bft)
06.11.2013 00:16 7,9 C 6,1 C 94 % 995,0 hPa 0,0 l/m 0 min 0 min 0,0 UV-I 0 W/m 10,3 km/h (2 Bft)
06.11.2013 00:18 8,0 C 6,1 C 94 % 995,0 hPa 0,0 l/m 0 min 0 min 0,0 UV-I 0 W/m 18,0 km/h (3 Bft)
06.11.2013 00:20 8,0 C 6,1 C 94 % 995,2 hPa 0,0 l/m 0 min 0 min 0,0 UV-I 0 W/m 20,6 km/h (4 Bft)
06.11.2013 00:22 8,1 C 6,1 C 94 % 995,1 hPa 0,0 l/m 0 min 0 min 0,0 UV-I 0 W/m 18,0 km/h (3 Bft)
06.11.2013 00:24 8,1 C 6,1 C 94 % 995,1 hPa 0,0 l/m 0 min 0 min 0,0 UV-I 0 W/m 23,2 km/h (4 Bft)
06.11.2013 00:26 8,1 C 6,1 C 94 % 995,1 hPa 0,0 l/m 0 min 0 min 0,0 UV-I 0 W/m 12,9 km/h (3 Bft)
06.11.2013 00:28 8,1 C 6,1 C 94 % 995,1 hPa 0,0 l/m 0 min 2 min 0,0 UV-I 0 W/m 12,9 km/h (3 Bft)
06.11.2013 00:30 8,2 C 6,1 C 94 % 995,1 hPa 0,0 l/m 0 min 0 min 0,0 UV-I 0 W/m 15,4 km/h (3 Bft)
06.11.2013 00:32 8,2 C 6,1 C 94 % 995,1 hPa 0,0 l/m 0 min 0 min 0,0 UV-I 0 W/m 7,7 km/h (2 Bft)
06.11.2013 00:34 8,2 C 6,1 C 94 % 995,2 hPa 0,0 l/m 0 min 0 min 0,0 UV-I 0 W/m 18,0 km/h (3 Bft)
06.11.2013 00:36 8,2 C 6,1 C 94 % 995,1 hPa 0,0 l/m 0 min 0 min 0,0 UV-I 0 W/m 7,7 km/h (2 Bft)
06.11.2013 00:38 8,2 C 6,1 C 93 % 995,1 hPa 0,0 l/m 0 min 0 min 0,0 UV-I 0 W/m 15,4 km/h (3 Bft)
06.11.2013 00:40 8,1 C 6,1 C 93 % 995,1 hPa 0,0 l/m 0 min 0 min 0,0 UV-I 0 W/m 20,6 km/h (4 Bft)
06.11.2013 00:42 8,1 C 6,1 C 93 % 995,2 hPa 0,0 l/m 0 min 0 min 0,0 UV-I 0 W/m 12,9 km/h (3 Bft)
06.11.2013 00:44 8,1 C 6,1 C 93 % 995,2 hPa 0,0 l/m 0 min 0 min 0,0 UV-I 0 W/m 20,6 km/h (4 Bft)
06.11.2013 00:46 8,1 C 6,1 C 93 % 995,3 hPa 0,0 l/m 0 min 0 min 0,0 UV-I 0 W/m 23,2 km/h (4 Bft)
06.11.2013 00:48 8,1 C 6,1 C 93 % 995,3 hPa 0,0 l/m 0 min 0 min 0,0 UV-I 0 W/m 28,3 km/h (4 Bft)
06.11.2013 00:50 8,0 C 5,6 C 93 % 995,3 hPa 0,0 l/m 0 min 0 min 0,0 UV-I 0 W/m 10,3 km/h (2 Bft)
06.11.2013 00:52 7,9 C 5,6 C 92 % 995,3 hPa 0,0 l/m 0 min 0 min 0,0 UV-I 0 W/m 12,9 km/h (3 Bft)
06.11.2013 00:54 7,9 C 5,6 C 92 % 995,4 hPa 0,0 l/m 0 min 0 min 0,0 UV-I 0 W/m 20,6 km/h (4 Bft)
06.11.2013 00:56 7,9 C 5,6 C 92 % 995,4 hPa 0,0 l/m 0 min 0 min 0,0 UV-I 0 W/m 15,4 km/h (3 Bft)
06.11.2013 00:58 7,9 C 5,6 C 92 % 995,4 hPa 0,0 l/m 0 min 0 min 0,0 UV-I 0 W/m 18,0 km/h (3 Bft)
06.11.2013 01:00 7,9 C 5,6 C 92 % 995,4 hPa 0,0 l/m 0 min 0 min 0,0 UV-I 0 W/m 15,4 km/h (3 Bft)
06.11.2013 01:02 7,9 C 5,6 C 92 % 995,4 hPa 0,0 l/m 0 min 0 min 0,0 UV-I 0 W/m 18,0 km/h (3 Bft)
06.11.2013 01:04 7,8 C 5,6 C 92 % 995,4 hPa 0,0 l/m 0 min 0 min 0,0 UV-I 0 W/m 15,4 km/h (3 Bft)
06.11.2013 01:06 7,8 C 5,6 C 92 % 995,4 hPa 0,0 l/m 0 min 0 min 0,0 UV-I 0 W/m 15,4 km/h (3 Bft)
06.11.2013 01:08 7,8 C 5,6 C 92 % 995,5 hPa 0,0 l/m 0 min 0 min 0,0 UV-I 0 W/m 7,7 km/h (2 Bft)
06.11.2013 01:10 7,7 C 5,6 C 92 % 995,5 hPa 0,0 l/m 0 min 0 min 0,0 UV-I 0 W/m 10,3 km/h (2 Bft)
06.11.2013 01:12 7,7 C 5,6 C 92 % 995,6 hPa 0,0 l/m 0 min 0 min 0,0 UV-I 0 W/m 18,0 km/h (3 Bft)
06.11.2013 01:14 7,7 C 5,6 C 92 % 995,5 hPa 0,0 l/m 0 min 0 min 0,0 UV-I 0 W/m 12,9 km/h (3 Bft)
06.11.2013 01:16 7,7 C 5,6 C 92 % 995,4 hPa 0,0 l/m 0 min 0 min 0,0 UV-I 0 W/m 7,7 km/h (2 Bft)
06.11.2013 01:18 7,7 C 5,6 C 92 % 995,6 hPa 0,0 l/m 0 min 0 min 0,0 UV-I 0 W/m 15,4 km/h (3 Bft)
06.11.2013 01:20 7,7 C 5,6 C 92 % 995,8 hPa 0,0 l/m 0 min 0 min 0,0 UV-I 0 W/m 12,9 km/h (3 Bft)
06.11.2013 01:22 7,7 C 5,6 C 92 % 995,8 hPa 0,0 l/m 0 min 0 min 0,0 UV-I 0 W/m 18,0 km/h (3 Bft)
06.11.2013 01:24 7,7 C 6,1 C 92 % 995,8 hPa 0,0 l/m 0 min 0 min 0,0 UV-I 0 W/m 18,0 km/h (3 Bft)
06.11.2013 01:26 7,7 C 6,1 C 92 % 995,8 hPa 0,0 l/m 0 min 0 min 0,0 UV-I 0 W/m 15,4 km/h (3 Bft)
06.11.2013 01:28 7,7 C 6,1 C 92 % 995,8 hPa 0,0 l/m 0 min 0 min 0,0 UV-I 0 W/m 18,0 km/h (3 Bft)
06.11.2013 01:30 7,7 C 6,1 C 92 % 995,7 hPa 0,0 l/m 0 min 0 min 0,0 UV-I 0 W/m 12,9 km/h (3 Bft)
06.11.2013 01:32 7,7 C 6,1 C 92 % 995,8 hPa 0,0 l/m 0 min 0 min 0,0 UV-I 0 W/m 18,0 km/h (3 Bft)
06.11.2013 01:34 7,7 C 6,1 C 92 % 995,7 hPa 0,0 l/m 0 min 0 min 0,0 UV-I 0 W/m 18,0 km/h (3 Bft)
06.11.2013 01:36 7,7 C 6,1 C 92 % 995,9 hPa 0,0 l/m 0 min 0 min 0,0 UV-I 0 W/m 18,0 km/h (3 Bft)
06.11.2013 01:38 7,7 C 6,1 C 92 % 995,8 hPa 0,0 l/m 0 min 0 min 0,0 UV-I 0 W/m 18,0 km/h (3 Bft)
06.11.2013 01:40 7,7 C 6,1 C 92 % 995,7 hPa 0,0 l/m 0 min 0 min 0,0 UV-I 0 W/m 7,7 km/h (2 Bft)
06.11.2013 01:42 7,7 C 6,1 C 91 % 995,8 hPa 0,0 l/m 0 min 0 min 0,0 UV-I 0 W/m 10,3 km/h (2 Bft)
06.11.2013 01:44 7,7 C 6,1 C 91 % 995,8 hPa 0,0 l/m 0 min 0 min 0,0 UV-I 0 W/m 23,2 km/h (4 Bft)
06.11.2013 01:46 7,7 C 6,1 C 91 % 996,1 hPa 0,0 l/m 0 min 0 min 0,0 UV-I 0 W/m 15,4 km/h (3 Bft)
06.11.2013 01:48 7,8 C 6,1 C 91 % 996,2 hPa 0,0 l/m 0 min 2 min 0,0 UV-I 0 W/m 20,6 km/h (4 Bft)
06.11.2013 01:50 7,9 C 6,1 C 91 % 996,3 hPa 0,0 l/m 0 min 2 min 0,0 UV-I 0 W/m 20,6 km/h (4 Bft)
06.11.2013 01:52 7,9 C 6,1 C 91 % 996,3 hPa 0,0 l/m 0 min 2 min 0,0 UV-I 0 W/m 20,6 km/h (4 Bft)
06.11.2013 01:54 7,9 C 6,1 C 91 % 996,4 hPa 0,2 l/m 0 min 2 min 0,0 UV-I 0 W/m 12,9 km/h (3 Bft)
06.11.2013 01:56 7,9 C 6,1 C 91 % 996,5 hPa 0,0 l/m 0 min 2 min 0,0 UV-I 0 W/m 30,9 km/h (5 Bft)
06.11.2013 01:58 7,9 C 6,1 C 91 % 996,4 hPa 0,0 l/m 0 min 2 min 0,0 UV-I 0 W/m 12,9 km/h (3 Bft)
06.11.2013 02:00 7,9 C 6,1 C 92 % 996,5 hPa 0,0 l/m 0 min 2 min 0,0 UV-I 0 W/m 10,3 km/h (2 Bft)
06.11.2013 02:02 7,8 C 6,1 C 92 % 996,6 hPa 0,0 l/m 0 min 2 min 0,0 UV-I 0 W/m 7,7 km/h (2 Bft)
06.11.2013 02:04 7,8 C 6,1 C 92 % 996,6 hPa 0,0 l/m 0 min 2 min 0,0 UV-I 0 W/m 15,4 km/h (3 Bft)
06.11.2013 02:06 7,8 C 6,1 C 92 % 996,6 hPa 0,0 l/m 0 min 2 min 0,0 UV-I 0 W/m 23,2 km/h (4 Bft)
06.11.2013 02:08 7,8 C 6,1 C 92 % 996,6 hPa 0,0 l/m 0 min 2 min 0,0 UV-I 0 W/m 12,9 km/h (3 Bft)
06.11.2013 02:10 7,7 C 6,1 C 92 % 996,6 hPa 0,0 l/m 0 min 2 min 0,0 UV-I 0 W/m 15,4 km/h (3 Bft)
06.11.2013 02:12 7,7 C 6,1 C 93 % 996,6 hPa 0,0 l/m 0 min 0 min 0,0 UV-I 0 W/m 18,0 km/h (3 Bft)
06.11.2013 02:14 7,7 C 6,1 C 93 % 996,6 hPa 0,2 l/m 0 min 0 min 0,0 UV-I 0 W/m 7,7 km/h (2 Bft)
06.11.2013 02:16 7,7 C 6,1 C 93 % 996,8 hPa 0,0 l/m 0 min 0 min 0,0 UV-I 0 W/m 10,3 km/h (2 Bft)
06.11.2013 02:18 7,6 C 6,1 C 93 % 996,8 hPa 0,0 l/m 0 min 0 min 0,0 UV-I 0 W/m 18,0 km/h (3 Bft)
06.11.2013 02:20 7,6 C 6,1 C 93 % 996,8 hPa 0,0 l/m 0 min 2 min 0,0 UV-I 0 W/m 10,3 km/h (2 Bft)
06.11.2013 02:22 7,6 C 6,1 C 93 % 996,7 hPa 0,0 l/m 0 min 2 min 0,0 UV-I 0 W/m 12,9 km/h (3 Bft)
06.11.2013 02:24 7,6 C 6,1 C 93 % 996,9 hPa 0,0 l/m 0 min 0 min 0,0 UV-I 0 W/m 10,3 km/h (2 Bft)
06.11.2013 02:26 7,6 C 6,1 C 94 % 996,8 hPa 0,0 l/m 0 min 2 min 0,0 UV-I 0 W/m 12,9 km/h (3 Bft)
06.11.2013 02:28 7,6 C 6,1 C 94 % 996,8 hPa 0,0 l/m 0 min 2 min 0,0 UV-I 0 W/m 12,9 km/h (3 Bft)
06.11.2013 02:30 7,6 C 6,1 C 94 % 996,9 hPa 0,0 l/m 0 min 2 min 0,0 UV-I 0 W/m 12,9 km/h (3 Bft)
06.11.2013 02:32 7,6 C 6,1 C 94 % 997,0 hPa 0,0 l/m 0 min 2 min 0,0 UV-I 0 W/m 0,0 km/h (0 Bft)
06.11.2013 02:34 7,6 C 6,1 C 94 % 996,9 hPa 0,0 l/m 0 min 2 min 0,0 UV-I 0 W/m 10,3 km/h (2 Bft)
06.11.2013 02:36 7,6 C 5,6 C 94 % 996,9 hPa 0,0 l/m 0 min 2 min 0,0 UV-I 0 W/m 15,4 km/h (3 Bft)
06.11.2013 02:38 7,5 C 5,6 C 94 % 996,9 hPa 0,0 l/m 0 min 2 min 0,0 UV-I 0 W/m 7,7 km/h (2 Bft)
06.11.2013 02:40 7,5 C 5,6 C 94 % 997,0 hPa 0,0 l/m 0 min 0 min 0,0 UV-I 0 W/m 25,7 km/h (4 Bft)
06.11.2013 02:42 7,5 C 5,6 C 94 % 996,8 hPa 0,0 l/m 0 min 2 min 0,0 UV-I 0 W/m 18,0 km/h (3 Bft)
06.11.2013 02:44 7,4 C 5,6 C 94 % 996,9 hPa 0,0 l/m 0 min 0 min 0,0 UV-I 0 W/m 20,6 km/h (4 Bft)
06.11.2013 02:46 7,4 C 5,6 C 94 % 996,8 hPa 0,0 l/m 0 min 0 min 0,0 UV-I 0 W/m 12,9 km/h (3 Bft)
06.11.2013 02:48 7,4 C 5,6 C 94 % 996,8 hPa 0,0 l/m 0 min 0 min 0,0 UV-I 0 W/m 10,3 km/h (2 Bft)
06.11.2013 02:50 7,4 C 5,6 C 94 % 996,9 hPa 0,0 l/m 0 min 0 min 0,0 UV-I 0 W/m 18,0 km/h (3 Bft)
06.11.2013 02:52 7,4 C 5,6 C 94 % 997,0 hPa 0,0 l/m 0 min 0 min 0,0 UV-I 0 W/m 15,4 km/h (3 Bft)
06.11.2013 02:54 7,4 C 5,6 C 94 % 997,0 hPa 0,0 l/m 0 min 0 min 0,0 UV-I 0 W/m 12,9 km/h (3 Bft)
06.11.2013 02:56 7,4 C 6,1 C 94 % 996,9 hPa 0,0 l/m 0 min 0 min 0,0 UV-I 0 W/m 7,7 km/h (2 Bft)
06.11.2013 02:58 7,5 C 6,1 C 95 % 997,0 hPa 0,0 l/m 0 min 0 min 0,0 UV-I 0 W/m 20,6 km/h (4 Bft)
06.11.2013 03:00 7,5 C 6,1 C 95 % 997,0 hPa 0,0 l/m 0 min 0 min 0,0 UV-I 0 W/m 12,9 km/h (3 Bft)
06.11.2013 03:02 7,5 C 6,1 C 95 % 997,1 hPa 0,0 l/m 0 min 0 min 0,0 UV-I 0 W/m 15,4 km/h (3 Bft)
06.11.2013 03:04 7,5 C 6,1 C 95 % 997,0 hPa 0,0 l/m 0 min 0 min 0,0 UV-I 0 W/m 15,4 km/h (3 Bft)
06.11.2013 03:06 7,5 C 6,1 C 95 % 997,1 hPa 0,0 l/m 0 min 0 min 0,0 UV-I 0 W/m 7,7 km/h (2 Bft)
06.11.2013 03:08 7,5 C 5,6 C 95 % 996,9 hPa 0,0 l/m 0 min 0 min 0,0 UV-I 0 W/m 10,3 km/h (2 Bft)
06.11.2013 03:10 7,5 C 6,1 C 95 % 996,9 hPa 0,0 l/m 0 min 0 min 0,0 UV-I 0 W/m 12,9 km/h (3 Bft)
06.11.2013 03:12 7,5 C 6,1 C 95 % 996,9 hPa 0,0 l/m 0 min 0 min 0,0 UV-I 0 W/m 10,3 km/h (2 Bft)
06.11.2013 03:14 7,5 C 6,1 C 95 % 997,0 hPa 0,0 l/m 0 min 0 min 0,0 UV-I 0 W/m 7,7 km/h (2 Bft)
06.11.2013 03:16 7,5 C 5,6 C 95 % 997,0 hPa 0,0 l/m 0 min 0 min 0,0 UV-I 0 W/m 5,1 km/h (1 Bft)
06.11.2013 03:18 7,5 C 5,6 C 95 % 997,0 hPa 0,0 l/m 0 min 0 min 0,0 UV-I 0 W/m 10,3 km/h (2 Bft)
06.11.2013 03:20 7,5 C 5,6 C 95 % 997,1 hPa 0,0 l/m 0 min 0 min 0,0 UV-I 0 W/m 18,0 km/h (3 Bft)
06.11.2013 03:22 7,5 C 6,1 C 95 % 997,0 hPa 0,0 l/m 0 min 0 min 0,0 UV-I 0 W/m 25,7 km/h (4 Bft)
06.11.2013 03:24 7,5 C 5,6 C 95 % 997,0 hPa 0,0 l/m 0 min 0 min 0,0 UV-I 0 W/m 10,3 km/h (2 Bft)
06.11.2013 03:26 7,5 C 5,6 C 95 % 997,0 hPa 0,0 l/m 0 min 0 min 0,0 UV-I 0 W/m 12,9 km/h (3 Bft)
06.11.2013 03:28 7,5 C 5,6 C 95 % 997,0 hPa 0,0 l/m 0 min 0 min 0,0 UV-I 0 W/m 12,9 km/h (3 Bft)
06.11.2013 03:30 7,5 C 5,6 C 95 % 997,1 hPa 0,0 l/m 0 min 0 min 0,0 UV-I 0 W/m 20,6 km/h (4 Bft)
06.11.2013 03:32 7,5 C 6,1 C 95 % 997,1 hPa 0,0 l/m 0 min 0 min 0,0 UV-I 0 W/m 15,4 km/h (3 Bft)
06.11.2013 03:34 7,5 C 6,1 C 95 % 997,1 hPa 0,0 l/m 0 min 0 min 0,0 UV-I 0 W/m 12,9 km/h (3 Bft)
06.11.2013 03:36 7,5 C 6,1 C 95 % 997,4 hPa 0,0 l/m 0 min 0 min 0,0 UV-I 0 W/m 15,4 km/h (3 Bft)
06.11.2013 03:38 7,6 C 6,1 C 95 % 997,4 hPa 0,0 l/m 0 min 0 min 0,0 UV-I 0 W/m 18,0 km/h (3 Bft)
06.11.2013 03:40 7,6 C 6,1 C 95 % 997,3 hPa 0,0 l/m 0 min 0 min 0,0 UV-I 0 W/m 15,4 km/h (3 Bft)
06.11.2013 03:42 7,6 C 6,1 C 95 % 997,3 hPa 0,0 l/m 0 min 0 min 0,0 UV-I 0 W/m 12,9 km/h (3 Bft)
06.11.2013 03:44 7,6 C 6,1 C 95 % 997,4 hPa 0,0 l/m 0 min 0 min 0,0 UV-I 0 W/m 12,9 km/h (3 Bft)
06.11.2013 03:46 7,6 C 6,1 C 95 % 997,4 hPa 0,0 l/m 0 min 0 min 0,0 UV-I 0 W/m 15,4 km/h (3 Bft)
06.11.2013 03:48 7,6 C 6,1 C 95 % 997,5 hPa 0,0 l/m 0 min 0 min 0,0 UV-I 0 W/m 18,0 km/h (3 Bft)
06.11.2013 03:50 7,6 C 6,1 C 95 % 997,6 hPa 0,0 l/m 0 min 0 min 0,0 UV-I 0 W/m 7,7 km/h (2 Bft)
06.11.2013 03:52 7,6 C 6,1 C 95 % 997,6 hPa 0,0 l/m 0 min 0 min 0,0 UV-I 0 W/m 7,7 km/h (2 Bft)
06.11.2013 03:54 7,6 C 5,6 C 95 % 997,6 hPa 0,0 l/m 0 min 0 min 0,0 UV-I 0 W/m 10,3 km/h (2 Bft)
06.11.2013 03:56 7,6 C 5,6 C 95 % 997,5 hPa 0,0 l/m 0 min 0 min 0,0 UV-I 0 W/m 12,9 km/h (3 Bft)
06.11.2013 03:58 7,6 C 6,1 C 95 % 997,5 hPa 0,0 l/m 0 min 0 min 0,0 UV-I 0 W/m 12,9 km/h (3 Bft)
06.11.2013 04:00 7,6 C 6,1 C 95 % 997,5 hPa 0,0 l/m 0 min 0 min 0,0 UV-I 0 W/m 12,9 km/h (3 Bft)
06.11.2013 04:02 7,6 C 6,1 C 95 % 997,5 hPa 0,0 l/m 0 min 0 min 0,0 UV-I 0 W/m 0,0 km/h (0 Bft)
06.11.2013 04:04 7,6 C 6,1 C 95 % 997,7 hPa 0,0 l/m 0 min 0 min 0,0 UV-I 0 W/m 5,1 km/h (1 Bft)
06.11.2013 04:06 7,6 C 6,1 C 95 % 997,8 hPa 0,0 l/m 0 min 0 min 0,0 UV-I 0 W/m 10,3 km/h (2 Bft)
06.11.2013 04:08 7,6 C 6,1 C 95 % 997,7 hPa 0,0 l/m 0 min 0 min 0,0 UV-I 0 W/m 7,7 km/h (2 Bft)
06.11.2013 04:10 7,6 C 5,6 C 95 % 997,9 hPa 0,0 l/m 0 min 0 min 0,0 UV-I 0 W/m 10,3 km/h (2 Bft)
06.11.2013 04:12 7,6 C 5,6 C 95 % 997,9 hPa 0,0 l/m 0 min 0 min 0,0 UV-I 0 W/m 10,3 km/h (2 Bft)
06.11.2013 04:14 7,6 C 5,6 C 95 % 997,9 hPa 0,0 l/m 0 min 0 min 0,0 UV-I 0 W/m 20,6 km/h (4 Bft)
06.11.2013 04:16 7,6 C 5,6 C 95 % 998,1 hPa 0,0 l/m 0 min 0 min 0,0 UV-I 0 W/m 10,3 km/h (2 Bft)
06.11.2013 04:18 7,6 C 5,6 C 95 % 998,2 hPa 0,0 l/m 0 min 0 min 0,0 UV-I 0 W/m 18,0 km/h (3 Bft)
06.11.2013 04:20 7,6 C 5,6 C 95 % 998,2 hPa 0,0 l/m 0 min 0 min 0,0 UV-I 0 W/m 10,3 km/h (2 Bft)
06.11.2013 04:22 7,5 C 5,6 C 95 % 998,2 hPa 0,0 l/m 0 min 0 min 0,0 UV-I 0 W/m 5,1 km/h (1 Bft)
06.11.2013 04:24 7,5 C 5,6 C 95 % 998,3 hPa 0,0 l/m 0 min 0 min 0,0 UV-I 0 W/m 12,9 km/h (3 Bft)
06.11.2013 04:26 7,5 C 5,6 C 95 % 998,2 hPa 0,0 l/m 0 min 0 min 0,0 UV-I 0 W/m 12,9 km/h (3 Bft)
06.11.2013 04:28 7,5 C 5,6 C 95 % 998,3 hPa 0,0 l/m 0 min 0 min 0,0 UV-I 0 W/m 12,9 km/h (3 Bft)
06.11.2013 04:30 7,5 C 5,6 C 95 % 998,3 hPa 0,0 l/m 0 min 0 min 0,0 UV-I 0 W/m 18,0 km/h (3 Bft)
06.11.2013 04:32 7,5 C 5,6 C 95 % 998,3 hPa 0,0 l/m 0 min 0 min 0,0 UV-I 0 W/m 12,9 km/h (3 Bft)
06.11.2013 04:34 7,6 C 5,6 C 95 % 998,4 hPa 0,0 l/m 0 min 0 min 0,0 UV-I 0 W/m 7,7 km/h (2 Bft)
06.11.2013 04:36 7,6 C 5,6 C 95 % 998,5 hPa 0,0 l/m 0 min 0 min 0,0 UV-I 0 W/m 2,6 km/h (1 Bft)
06.11.2013 04:38 7,6 C 5,6 C 95 % 998,5 hPa 0,0 l/m 0 min 0 min 0,0 UV-I 0 W/m 10,3 km/h (2 Bft)
06.11.2013 04:40 7,5 C 5,6 C 95 % 998,7 hPa 0,0 l/m 0 min 0 min 0,0 UV-I 0 W/m 12,9 km/h (3 Bft)
06.11.2013 04:42 7,5 C 5,6 C 95 % 998,7 hPa 0,0 l/m 0 min 0 min 0,0 UV-I 0 W/m 10,3 km/h (2 Bft)
06.11.2013 04:44 7,5 C 5,6 C 95 % 998,5 hPa 0,0 l/m 0 min 0 min 0,0 UV-I 0 W/m 15,4 km/h (3 Bft)
06.11.2013 04:46 7,5 C 5,6 C 94 % 998,5 hPa 0,0 l/m 0 min 0 min 0,0 UV-I 0 W/m 15,4 km/h (3 Bft)
06.11.2013 04:48 7,5 C 5,6 C 94 % 998,4 hPa 0,0 l/m 0 min 0 min 0,0 UV-I 0 W/m 15,4 km/h (3 Bft)
06.11.2013 04:50 7,5 C 5,6 C 94 % 998,3 hPa 0,0 l/m 0 min 0 min 0,0 UV-I 0 W/m 2,6 km/h (1 Bft)
06.11.2013 04:52 7,5 C 5,6 C 94 % 998,3 hPa 0,0 l/m 0 min 0 min 0,0 UV-I 0 W/m 23,2 km/h (4 Bft)
06.11.2013 04:54 7,5 C 6,1 C 94 % 998,4 hPa 0,0 l/m 0 min 0 min 0,0 UV-I 0 W/m 15,4 km/h (3 Bft)
06.11.2013 04:56 7,6 C 6,1 C 94 % 998,4 hPa 0,0 l/m 0 min 0 min 0,0 UV-I 0 W/m 10,3 km/h (2 Bft)
06.11.2013 04:58 7,6 C 6,1 C 94 % 998,4 hPa 0,0 l/m 0 min 0 min 0,0 UV-I 0 W/m 10,3 km/h (2 Bft)
06.11.2013 05:00 7,6 C 6,1 C 94 % 998,6 hPa 0,0 l/m 0 min 0 min 0,0 UV-I 0 W/m 15,4 km/h (3 Bft)
06.11.2013 05:02 7,6 C 6,1 C 94 % 998,6 hPa 0,0 l/m 0 min 0 min 0,0 UV-I 0 W/m 12,9 km/h (3 Bft)
06.11.2013 05:04 7,6 C 6,1 C 94 % 998,5 hPa 0,0 l/m 0 min 0 min 0,0 UV-I 0 W/m 15,4 km/h (3 Bft)
06.11.2013 05:06 7,6 C 6,1 C 94 % 998,7 hPa 0,0 l/m 0 min 0 min 0,0 UV-I 0 W/m 7,7 km/h (2 Bft)
06.11.2013 05:08 7,6 C 6,1 C 94 % 998,7 hPa 0,0 l/m 0 min 0 min 0,0 UV-I 0 W/m 0,0 km/h (0 Bft)
06.11.2013 05:10 7,6 C 5,6 C 94 % 998,8 hPa 0,0 l/m 0 min 0 min 0,0 UV-I 0 W/m 15,4 km/h (3 Bft)
06.11.2013 05:12 7,6 C 6,1 C 94 % 999,0 hPa 0,0 l/m 0 min 0 min 0,0 UV-I 0 W/m 12,9 km/h (3 Bft)
06.11.2013 05:14 7,6 C 5,6 C 94 % 999,1 hPa 0,0 l/m 0 min 0 min 0,0 UV-I 0 W/m 7,7 km/h (2 Bft)
06.11.2013 05:16 7,6 C 5,6 C 94 % 999,1 hPa 0,0 l/m 0 min 0 min 0,0 UV-I 0 W/m 7,7 km/h (2 Bft)
06.11.2013 05:18 7,6 C 5,6 C 94 % 999,0 hPa 0,0 l/m 0 min 0 min 0,0 UV-I 0 W/m 5,1 km/h (1 Bft)
06.11.2013 05:20 7,6 C 5,6 C 94 % 999,1 hPa 0,0 l/m 0 min 0 min 0,0 UV-I 0 W/m 18,0 km/h (3 Bft)
06.11.2013 05:22 7,6 C 5,6 C 94 % 998,9 hPa 0,0 l/m 0 min 0 min 0,0 UV-I 0 W/m 5,1 km/h (1 Bft)
06.11.2013 05:24 7,6 C 5,6 C 94 % 999,0 hPa 0,0 l/m 0 min 0 min 0,0 UV-I 0 W/m 10,3 km/h (2 Bft)
06.11.2013 05:26 7,6 C 6,1 C 94 % 999,0 hPa 0,0 l/m 0 min 0 min 0,0 UV-I 0 W/m 10,3 km/h (2 Bft)
06.11.2013 05:28 7,6 C 6,1 C 94 % 999,0 hPa 0,0 l/m 0 min 0 min 0,0 UV-I 0 W/m 7,7 km/h (2 Bft)
06.11.2013 05:30 7,7 C 6,1 C 94 % 999,0 hPa 0,0 l/m 0 min 0 min 0,0 UV-I 0 W/m 12,9 km/h (3 Bft)
06.11.2013 05:32 7,6 C 6,1 C 94 % 999,1 hPa 0,0 l/m 0 min 0 min 0,0 UV-I 0 W/m 12,9 km/h (3 Bft)
06.11.2013 05:34 7,7 C 6,1 C 94 % 999,1 hPa 0,0 l/m 0 min 0 min 0,0 UV-I 0 W/m 10,3 km/h (2 Bft)
06.11.2013 05:36 7,7 C 5,6 C 94 % 999,2 hPa 0,0 l/m 0 min 0 min 0,0 UV-I 0 W/m 5,1 km/h (1 Bft)
06.11.2013 05:38 7,6 C 5,6 C 94 % 999,5 hPa 0,0 l/m 0 min 0 min 0,0 UV-I 0 W/m 7,7 km/h (2 Bft)
06.11.2013 05:40 7,6 C 5,6 C 94 % 999,4 hPa 0,0 l/m 0 min 0 min 0,0 UV-I 0 W/m 2,6 km/h (1 Bft)
06.11.2013 05:42 7,6 C 5,6 C 94 % 999,3 hPa 0,0 l/m 0 min 0 min 0,0 UV-I 0 W/m 10,3 km/h (2 Bft)
06.11.2013 05:44 7,6 C 5,6 C 94 % 999,6 hPa 0,0 l/m 0 min 0 min 0,0 UV-I 0 W/m 2,6 km/h (1 Bft)
06.11.2013 05:46 7,6 C 5,6 C 94 % 999,6 hPa 0,0 l/m 0 min 0 min 0,0 UV-I 0 W/m 7,7 km/h (2 Bft)
06.11.2013 05:48 7,6 C 5,6 C 94 % 999,6 hPa 0,0 l/m 0 min 0 min 0,0 UV-I 0 W/m 15,4 km/h (3 Bft)
06.11.2013 05:50 7,6 C 5,6 C 94 % 999,6 hPa 0,0 l/m 0 min 0 min 0,0 UV-I 0 W/m 10,3 km/h (2 Bft)
06.11.2013 05:52 7,6 C 5,6 C 94 % 999,7 hPa 0,0 l/m 0 min 0 min 0,0 UV-I 0 W/m 18,0 km/h (3 Bft)
06.11.2013 05:54 7,6 C 5,6 C 94 % 999,6 hPa 0,0 l/m 0 min 0 min 0,0 UV-I 0 W/m 5,1 km/h (1 Bft)
06.11.2013 05:56 7,6 C 5,6 C 94 % 999,6 hPa 0,0 l/m 0 min 0 min 0,0 UV-I 0 W/m 20,6 km/h (4 Bft)
06.11.2013 05:58 7,6 C 5,6 C 94 % 999,5 hPa 0,0 l/m 0 min 0 min 0,0 UV-I 0 W/m 0,0 km/h (0 Bft)
06.11.2013 06:00 7,6 C 5,6 C 94 % 999,5 hPa 0,0 l/m 0 min 0 min 0,0 UV-I 0 W/m 7,7 km/h (2 Bft)
06.11.2013 06:02 7,6 C 5,6 C 94 % 999,5 hPa 0,0 l/m 0 min 0 min 0,0 UV-I 0 W/m 2,6 km/h (1 Bft)
06.11.2013 06:06 7,6 C 5,6 C 93 % 999,7 hPa 0,0 l/m 0 min 0 min 0,0 UV-I 0 W/m 0,0 km/h (0 Bft)
06.11.2013 06:08 7,5 C 5,6 C 93 % 999,8 hPa 0,0 l/m 0 min 0 min 0,0 UV-I 0 W/m 10,3 km/h (2 Bft)
06.11.2013 06:10 7,5 C 5,6 C 93 % 999,9 hPa 0,0 l/m 0 min 0 min 0,0 UV-I 0 W/m 2,6 km/h (1 Bft)
06.11.2013 06:12 7,5 C 5,6 C 93 % 999,9 hPa 0,0 l/m 0 min 0 min 0,0 UV-I 0 W/m 12,9 km/h (3 Bft)
06.11.2013 06:14 7,6 C 6,1 C 94 % 999,8 hPa 0,0 l/m 0 min 0 min 0,0 UV-I 0 W/m 12,9 km/h (3 Bft)
06.11.2013 06:16 7,6 C 6,1 C 93 % 999,8 hPa 0,0 l/m 0 min 0 min 0,0 UV-I 0 W/m 2,6 km/h (1 Bft)
06.11.2013 06:18 7,6 C 6,1 C 94 % 999,8 hPa 0,0 l/m 0 min 0 min 0,0 UV-I 0 W/m 7,7 km/h (2 Bft)
06.11.2013 06:20 7,6 C 6,1 C 94 % 999,8 hPa 0,0 l/m 0 min 0 min 0,0 UV-I 0 W/m 10,3 km/h (2 Bft)
06.11.2013 06:22 7,6 C 6,1 C 94 % 999,8 hPa 0,0 l/m 0 min 0 min 0,0 UV-I 0 W/m 7,7 km/h (2 Bft)
06.11.2013 06:24 7,6 C 6,1 C 93 % 999,7 hPa 0,0 l/m 0 min 0 min 0,0 UV-I 0 W/m 7,7 km/h (2 Bft)
06.11.2013 06:26 7,6 C 6,1 C 93 % 999,8 hPa 0,0 l/m 0 min 0 min 0,0 UV-I 0 W/m 7,7 km/h (2 Bft)
06.11.2013 06:28 7,6 C 5,6 C 93 % 999,8 hPa 0,0 l/m 0 min 0 min 0,0 UV-I 0 W/m 12,9 km/h (3 Bft)
06.11.2013 06:30 7,6 C 5,6 C 93 % 999,8 hPa 0,0 l/m 0 min 0 min 0,0 UV-I 0 W/m 7,7 km/h (2 Bft)
06.11.2013 06:32 7,6 C 5,6 C 93 % 999,8 hPa 0,0 l/m 0 min 0 min 0,0 UV-I 0 W/m 12,9 km/h (3 Bft)
06.11.2013 06:34 7,6 C 5,6 C 93 % 999,8 hPa 0,0 l/m 0 min 0 min 0,0 UV-I 0 W/m 2,6 km/h (1 Bft)
06.11.2013 06:36 7,6 C 5,6 C 93 % 999,8 hPa 0,0 l/m 0 min 0 min 0,0 UV-I 0 W/m 0,0 km/h (0 Bft)
06.11.2013 06:38 7,6 C 6,1 C 93 % 999,8 hPa 0,0 l/m 0 min 0 min 0,0 UV-I 0 W/m 2,6 km/h (1 Bft)
06.11.2013 06:40 7,6 C 6,1 C 93 % 999,8 hPa 0,0 l/m 0 min 0 min 0,0 UV-I 0 W/m 5,1 km/h (1 Bft)
06.11.2013 06:42 7,6 C 6,1 C 93 % 999,9 hPa 0,0 l/m 0 min 0 min 0,0 UV-I 0 W/m 2,6 km/h (1 Bft)
06.11.2013 06:44 7,6 C 6,1 C 93 % 1000,0 hPa 0,0 l/m 0 min 0 min 0,0 UV-I 0 W/m 7,7 km/h (2 Bft)
06.11.2013 06:46 7,6 C 6,1 C 93 % 999,8 hPa 0,0 l/m 0 min 0 min 0,0 UV-I 0 W/m 2,6 km/h (1 Bft)
06.11.2013 06:48 7,6 C 6,1 C 93 % 999,8 hPa 0,0 l/m 0 min 0 min 0,0 UV-I 0 W/m 12,9 km/h (3 Bft)
06.11.2013 06:50 7,6 C 6,1 C 93 % 999,7 hPa 0,0 l/m 0 min 0 min 0,0 UV-I 0 W/m 7,7 km/h (2 Bft)
06.11.2013 06:52 7,6 C 6,1 C 93 % 999,5 hPa 0,0 l/m 0 min 0 min 0,0 UV-I 0 W/m 0,0 km/h (0 Bft)
06.11.2013 06:54 7,6 C 6,1 C 93 % 999,7 hPa 0,0 l/m 0 min 0 min 0,0 UV-I 0 W/m 10,3 km/h (2 Bft)
06.11.2013 06:56 7,6 C 6,1 C 93 % 999,7 hPa 0,0 l/m 0 min 0 min 0,0 UV-I 0 W/m 0,0 km/h (0 Bft)
06.11.2013 06:58 7,6 C 6,1 C 93 % 999,8 hPa 0,0 l/m 0 min 0 min 0,0 UV-I 0 W/m 7,7 km/h (2 Bft)
06.11.2013 07:00 7,6 C 6,1 C 93 % 999,8 hPa 0,0 l/m 0 min 0 min 0,0 UV-I 0 W/m 12,9 km/h (3 Bft)
06.11.2013 07:02 7,6 C 6,1 C 93 % 1000,0 hPa 0,0 l/m 0 min 0 min 0,0 UV-I 0 W/m 10,3 km/h (2 Bft)
06.11.2013 07:04 7,6 C 6,1 C 93 % 999,9 hPa 0,0 l/m 0 min 0 min 0,0 UV-I 0 W/m 10,3 km/h (2 Bft)
06.11.2013 07:06 7,6 C 6,1 C 93 % 999,9 hPa 0,0 l/m 0 min 0 min 0,0 UV-I 0 W/m 10,3 km/h (2 Bft)
06.11.2013 07:08 7,6 C 6,1 C 93 % 1000,1 hPa 0,0 l/m 0 min 0 min 0,0 UV-I 0 W/m 2,6 km/h (1 Bft)
06.11.2013 07:10 7,6 C 6,1 C 93 % 1000,1 hPa 0,0 l/m 0 min 0 min 0,0 UV-I 0 W/m 5,1 km/h (1 Bft)
06.11.2013 07:12 7,6 C 6,1 C 93 % 1000,1 hPa 0,0 l/m 0 min 0 min 0,0 UV-I 0 W/m 7,7 km/h (2 Bft)
06.11.2013 07:14 7,6 C 6,1 C 93 % 1000,1 hPa 0,0 l/m 0 min 0 min 0,0 UV-I 0 W/m 12,9 km/h (3 Bft)
06.11.2013 07:16 7,6 C 6,1 C 93 % 1000,0 hPa 0,0 l/m 0 min 0 min 0,0 UV-I 0 W/m 20,6 km/h (4 Bft)
06.11.2013 07:18 7,6 C 6,1 C 93 % 999,9 hPa 0,0 l/m 0 min 0 min 0,0 UV-I 0 W/m 2,6 km/h (1 Bft)
06.11.2013 07:20 7,6 C 6,1 C 93 % 1000,1 hPa 0,0 l/m 0 min 0 min 0,0 UV-I 0 W/m 10,3 km/h (2 Bft)
06.11.2013 07:22 7,6 C 6,1 C 93 % 1000,0 hPa 0,0 l/m 0 min 0 min 0,0 UV-I 0 W/m 0,0 km/h (0 Bft)
06.11.2013 07:24 7,6 C 6,1 C 93 % 999,9 hPa 0,0 l/m 0 min 0 min 0,0 UV-I 0 W/m 5,1 km/h (1 Bft)
06.11.2013 07:26 7,6 C 6,1 C 93 % 999,9 hPa 0,0 l/m 0 min 0 min 0,0 UV-I 0 W/m 7,7 km/h (2 Bft)
06.11.2013 07:28 7,6 C 6,1 C 93 % 1000,0 hPa 0,0 l/m 0 min 0 min 0,0 UV-I 0 W/m 7,7 km/h (2 Bft)
06.11.2013 07:30 7,7 C 6,1 C 93 % 1000,1 hPa 0,0 l/m 0 min 0 min 0,0 UV-I 0 W/m 0,0 km/h (0 Bft)
06.11.2013 07:32 7,7 C 6,1 C 93 % 1000,1 hPa 0,0 l/m 0 min 0 min 0,0 UV-I 0 W/m 7,7 km/h (2 Bft)
06.11.2013 07:34 7,7 C 6,1 C 93 % 1000,1 hPa 0,0 l/m 0 min 0 min 0,0 UV-I 0 W/m 5,1 km/h (1 Bft)
06.11.2013 07:36 7,7 C 6,1 C 93 % 1000,2 hPa 0,0 l/m 0 min 0 min 0,0 UV-I 0 W/m 2,6 km/h (1 Bft)
06.11.2013 07:38 7,7 C 6,1 C 92 % 1000,0 hPa 0,0 l/m 0 min 0 min 0,0 UV-I 0 W/m 0,0 km/h (0 Bft)
06.11.2013 07:40 7,7 C 6,1 C 93 % 1000,1 hPa 0,0 l/m 0 min 0 min 0,0 UV-I 0 W/m 7,7 km/h (2 Bft)
06.11.2013 07:42 7,7 C 6,1 C 93 % 1000,3 hPa 0,0 l/m 0 min 0 min 0,0 UV-I 0 W/m 0,0 km/h (0 Bft)
06.11.2013 07:44 7,7 C 6,1 C 93 % 1000,2 hPa 0,0 l/m 0 min 0 min 0,0 UV-I 0 W/m 10,3 km/h (2 Bft)
06.11.2013 07:46 7,7 C 6,1 C 92 % 1000,0 hPa 0,0 l/m 0 min 0 min 0,0 UV-I 5 W/m 5,1 km/h (1 Bft)
06.11.2013 07:48 7,7 C 6,1 C 92 % 1000,4 hPa 0,0 l/m 0 min 0 min 0,0 UV-I 5 W/m 5,1 km/h (1 Bft)
06.11.2013 07:50 7,7 C 6,1 C 92 % 1000,4 hPa 0,0 l/m 0 min 0 min 0,0 UV-I 5 W/m 0,0 km/h (0 Bft)
06.11.2013 07:52 7,7 C 6,1 C 92 % 1000,2 hPa 0,0 l/m 0 min 0 min 0,0 UV-I 7 W/m 0,0 km/h (0 Bft)
06.11.2013 07:54 7,7 C 6,1 C 92 % 1000,2 hPa 0,0 l/m 0 min 0 min 0,0 UV-I 7 W/m 0,0 km/h (0 Bft)
06.11.2013 07:56 7,7 C 6,1 C 92 % 1000,3 hPa 0,0 l/m 0 min 0 min 0,0 UV-I 7 W/m 0,0 km/h (0 Bft)
06.11.2013 07:58 7,7 C 6,1 C 92 % 1000,2 hPa 0,0 l/m 0 min 0 min 0,0 UV-I 9 W/m 5,1 km/h (1 Bft)
06.11.2013 08:00 7,7 C 6,1 C 92 % 1000,2 hPa 0,0 l/m 0 min 0 min 0,0 UV-I 9 W/m 10,3 km/h (2 Bft)
06.11.2013 08:02 7,8 C 6,1 C 92 % 1000,4 hPa 0,0 l/m 0 min 0 min 0,0 UV-I 11 W/m 7,7 km/h (2 Bft)
06.11.2013 08:04 7,8 C 6,1 C 92 % 1000,4 hPa 0,0 l/m 0 min 0 min 0,0 UV-I 11 W/m 10,3 km/h (2 Bft)
06.11.2013 08:06 7,8 C 6,1 C 92 % 1000,4 hPa 0,0 l/m 0 min 0 min 0,0 UV-I 12 W/m 5,1 km/h (1 Bft)
06.11.2013 08:08 7,8 C 6,1 C 92 % 1000,4 hPa 0,0 l/m 0 min 0 min 0,0 UV-I 12 W/m 5,1 km/h (1 Bft)
06.11.2013 08:10 7,8 C 6,1 C 92 % 1000,3 hPa 0,0 l/m 0 min 0 min 0,0 UV-I 14 W/m 0,0 km/h (0 Bft)
06.11.2013 08:12 7,8 C 6,1 C 92 % 1000,4 hPa 0,0 l/m 0 min 0 min 0,0 UV-I 14 W/m 0,0 km/h (0 Bft)
06.11.2013 08:14 7,8 C 6,1 C 92 % 1000,3 hPa 0,0 l/m 0 min 0 min 0,0 UV-I 14 W/m 7,7 km/h (2 Bft)
06.11.2013 08:16 7,8 C 6,7 C 92 % 1000,4 hPa 0,0 l/m 0 min 0 min 0,0 UV-I 16 W/m 7,7 km/h (2 Bft)
06.11.2013 08:18 7,8 C 6,7 C 92 % 1000,4 hPa 0,0 l/m 0 min 0 min 0,0 UV-I 18 W/m 0,0 km/h (0 Bft)
06.11.2013 08:20 7,8 C 6,7 C 92 % 1000,4 hPa 0,0 l/m 0 min 0 min 0,0 UV-I 21 W/m 15,4 km/h (3 Bft)
06.11.2013 08:22 7,9 C 6,7 C 92 % 1000,5 hPa 0,0 l/m 0 min 0 min 0,0 UV-I 19 W/m 5,1 km/h (1 Bft)
06.11.2013 08:24 7,9 C 6,7 C 92 % 1000,6 hPa 0,0 l/m 0 min 0 min 0,0 UV-I 19 W/m 0,0 km/h (0 Bft)
06.11.2013 08:26 7,9 C 6,7 C 92 % 1000,6 hPa 0,0 l/m 0 min 0 min 0,0 UV-I 19 W/m 10,3 km/h (2 Bft)
06.11.2013 08:28 7,9 C 6,7 C 92 % 1000,5 hPa 0,0 l/m 0 min 0 min 0,0 UV-I 21 W/m 5,1 km/h (1 Bft)
06.11.2013 08:30 7,9 C 6,7 C 92 % 1000,5 hPa 0,0 l/m 0 min 0 min 0,0 UV-I 23 W/m 5,1 km/h (1 Bft)
06.11.2013 08:32 8,0 C 6,7 C 92 % 1000,6 hPa 0,0 l/m 0 min 0 min 0,0 UV-I 25 W/m 10,3 km/h (2 Bft)
06.11.2013 08:34 8,0 C 6,7 C 92 % 1000,6 hPa 0,0 l/m 0 min 0 min 0,0 UV-I 25 W/m 12,9 km/h (3 Bft)
06.11.2013 08:36 8,1 C 6,7 C 92 % 1000,6 hPa 0,0 l/m 0 min 0 min 0,0 UV-I 26 W/m 10,3 km/h (2 Bft)
06.11.2013 08:38 8,1 C 6,7 C 92 % 1000,7 hPa 0,0 l/m 0 min 0 min 0,0 UV-I 28 W/m 7,7 km/h (2 Bft)
06.11.2013 08:40 8,1 C 6,7 C 92 % 1001,0 hPa 0,0 l/m 0 min 0 min 0,0 UV-I 28 W/m 5,1 km/h (1 Bft)
06.11.2013 08:42 8,2 C 6,7 C 92 % 1000,8 hPa 0,0 l/m 0 min 0 min 0,0 UV-I 28 W/m 7,7 km/h (2 Bft)
06.11.2013 08:44 8,2 C 6,7 C 92 % 1000,5 hPa 0,0 l/m 0 min 0 min 0,0 UV-I 26 W/m 12,9 km/h (3 Bft)
06.11.2013 08:46 8,3 C 7,2 C 92 % 1000,5 hPa 0,0 l/m 0 min 0 min 0,0 UV-I 30 W/m 12,9 km/h (3 Bft)
06.11.2013 08:48 8,3 C 7,2 C 92 % 1000,5 hPa 0,0 l/m 0 min 0 min 0,0 UV-I 33 W/m 10,3 km/h (2 Bft)
06.11.2013 08:50 8,3 C 7,2 C 92 % 1000,7 hPa 0,0 l/m 0 min 0 min 0,0 UV-I 32 W/m 7,7 km/h (2 Bft)
06.11.2013 08:52 8,3 C 7,2 C 92 % 1001,0 hPa 0,0 l/m 0 min 0 min 0,0 UV-I 28 W/m 7,7 km/h (2 Bft)
06.11.2013 08:54 8,4 C 7,2 C 92 % 1001,2 hPa 0,0 l/m 0 min 0 min 0,0 UV-I 26 W/m 7,7 km/h (2 Bft)
06.11.2013 08:56 8,4 C 7,2 C 92 % 1001,1 hPa 0,0 l/m 0 min 0 min 0,0 UV-I 30 W/m 7,7 km/h (2 Bft)
06.11.2013 08:58 8,4 C 7,2 C 92 % 1000,8 hPa 0,0 l/m 0 min 0 min 0,0 UV-I 39 W/m 5,1 km/h (1 Bft)
06.11.2013 09:00 8,5 C 7,2 C 92 % 1000,6 hPa 0,0 l/m 0 min 0 min 0,0 UV-I 37 W/m 2,6 km/h (1 Bft)
06.11.2013 09:02 8,5 C 7,2 C 91 % 1000,7 hPa 0,0 l/m 0 min 0 min 0,0 UV-I 40 W/m 12,9 km/h (3 Bft)
06.11.2013 09:04 8,5 C 7,2 C 91 % 1000,8 hPa 0,0 l/m 0 min 0 min 0,0 UV-I 42 W/m 15,4 km/h (3 Bft)
06.11.2013 09:06 8,6 C 7,2 C 92 % 1000,9 hPa 0,0 l/m 0 min 0 min 0,0 UV-I 46 W/m 2,6 km/h (1 Bft)
06.11.2013 09:08 8,6 C 7,2 C 92 % 1000,9 hPa 0,0 l/m 0 min 0 min 0,0 UV-I 47 W/m 10,3 km/h (2 Bft)
06.11.2013 09:10 8,7 C 7,2 C 92 % 1001,0 hPa 0,0 l/m 0 min 0 min 0,0 UV-I 70 W/m 18,0 km/h (3 Bft)
06.11.2013 09:12 8,7 C 7,8 C 91 % 1000,7 hPa 0,0 l/m 0 min 0 min 0,0 UV-I 60 W/m 15,4 km/h (3 Bft)
06.11.2013 09:14 8,8 C 7,8 C 91 % 1000,7 hPa 0,0 l/m 0 min 0 min 0,0 UV-I 49 W/m 10,3 km/h (2 Bft)
06.11.2013 09:16 8,8 C 7,8 C 91 % 1000,9 hPa 0,0 l/m 0 min 0 min 0,0 UV-I 49 W/m 15,4 km/h (3 Bft)
06.11.2013 09:18 8,8 C 7,8 C 91 % 1000,9 hPa 0,0 l/m 0 min 0 min 0,0 UV-I 54 W/m 10,3 km/h (2 Bft)
06.11.2013 09:20 8,9 C 7,8 C 91 % 1000,8 hPa 0,0 l/m 0 min 0 min 0,0 UV-I 65 W/m 15,4 km/h (3 Bft)
06.11.2013 09:22 8,9 C 7,8 C 91 % 1001,0 hPa 0,0 l/m 0 min 0 min 0,0 UV-I 60 W/m 10,3 km/h (2 Bft)
06.11.2013 09:24 8,9 C 7,8 C 91 % 1001,1 hPa 0,0 l/m 0 min 0 min 0,0 UV-I 62 W/m 18,0 km/h (3 Bft)
06.11.2013 09:26 9,0 C 7,8 C 91 % 1001,1 hPa 0,0 l/m 0 min 0 min 0,0 UV-I 54 W/m 15,4 km/h (3 Bft)
06.11.2013 09:28 9,1 C 7,8 C 91 % 1001,3 hPa 0,0 l/m 0 min 0 min 0,0 UV-I 56 W/m 15,4 km/h (3 Bft)
06.11.2013 09:30 9,1 C 7,8 C 90 % 1001,0 hPa 0,0 l/m 0 min 0 min 0,0 UV-I 63 W/m 18,0 km/h (3 Bft)
06.11.2013 09:32 9,1 C 7,8 C 90 % 1001,1 hPa 0,0 l/m 0 min 0 min 0,0 UV-I 58 W/m 10,3 km/h (2 Bft)
06.11.2013 09:34 9,1 C 7,8 C 90 % 1001,1 hPa 0,0 l/m 0 min 0 min 0,0 UV-I 60 W/m 10,3 km/h (2 Bft)
06.11.2013 09:36 9,2 C 7,8 C 91 % 1001,1 hPa 0,0 l/m 0 min 0 min 0,0 UV-I 67 W/m 12,9 km/h (3 Bft)
06.11.2013 09:38 9,2 C 7,8 C 91 % 1001,1 hPa 0,0 l/m 0 min 0 min 0,0 UV-I 72 W/m 0,0 km/h (0 Bft)
06.11.2013 09:40 9,2 C 7,8 C 91 % 1001,2 hPa 0,0 l/m 0 min 0 min 0,0 UV-I 63 W/m 10,3 km/h (2 Bft)
06.11.2013 09:42 9,2 C 7,8 C 91 % 1001,2 hPa 0,0 l/m 0 min 0 min 0,0 UV-I 65 W/m 18,0 km/h (3 Bft)
06.11.2013 09:44 9,2 C 8,3 C 91 % 1001,1 hPa 0,0 l/m 0 min 0 min 0,0 UV-I 91 W/m 12,9 km/h (3 Bft)
06.11.2013 09:46 9,3 C 8,3 C 91 % 1001,1 hPa 0,0 l/m 0 min 0 min 0,0 UV-I 86 W/m 10,3 km/h (2 Bft)
06.11.2013 09:48 9,3 C 8,3 C 91 % 1001,1 hPa 0,0 l/m 0 min 0 min 0,0 UV-I 84 W/m 15,4 km/h (3 Bft)
06.11.2013 09:50 9,3 C 8,3 C 91 % 1001,1 hPa 0,0 l/m 0 min 0 min 0,0 UV-I 77 W/m 15,4 km/h (3 Bft)
06.11.2013 09:52 9,3 C 8,3 C 91 % 1001,0 hPa 0,0 l/m 0 min 0 min 0,0 UV-I 79 W/m 18,0 km/h (3 Bft)
06.11.2013 09:54 9,4 C 8,3 C 90 % 1001,2 hPa 0,0 l/m 0 min 0 min 0,0 UV-I 81 W/m 20,6 km/h (4 Bft)
06.11.2013 09:56 9,4 C 8,3 C 90 % 1001,3 hPa 0,0 l/m 0 min 0 min 0,0 UV-I 83 W/m 7,7 km/h (2 Bft)
06.11.2013 09:58 9,4 C 8,3 C 90 % 1001,3 hPa 0,0 l/m 0 min 0 min 0,0 UV-I 79 W/m 7,7 km/h (2 Bft)
06.11.2013 10:00 9,4 C 8,3 C 90 % 1001,4 hPa 0,0 l/m 0 min 0 min 0,0 UV-I 72 W/m 0,0 km/h (0 Bft)
06.11.2013 10:02 9,5 C 8,3 C 90 % 1001,5 hPa 0,0 l/m 0 min 0 min 0,0 UV-I 70 W/m 12,9 km/h (3 Bft)
06.11.2013 10:04 9,5 C 8,3 C 90 % 1001,6 hPa 0,0 l/m 0 min 0 min 0,0 UV-I 77 W/m 5,1 km/h (1 Bft)
06.11.2013 10:06 9,5 C 8,3 C 90 % 1001,6 hPa 0,0 l/m 0 min 0 min 0,0 UV-I 77 W/m 18,0 km/h (3 Bft)
06.11.2013 10:08 9,6 C 8,3 C 90 % 1001,7 hPa 0,0 l/m 0 min 0 min 0,0 UV-I 81 W/m 15,4 km/h (3 Bft)
06.11.2013 10:10 9,6 C 8,3 C 90 % 1001,5 hPa 0,0 l/m 0 min 0 min 0,0 UV-I 81 W/m 20,6 km/h (4 Bft)
06.11.2013 10:12 9,6 C 8,9 C 90 % 1001,5 hPa 0,0 l/m 0 min 0 min 0,0 UV-I 116 W/m 10,3 km/h (2 Bft)
06.11.2013 10:14 9,7 C 8,9 C 90 % 1001,5 hPa 0,0 l/m 2 min 0 min 0,0 UV-I 181 W/m 10,3 km/h (2 Bft)
06.11.2013 10:16 9,7 C 8,9 C 90 % 1001,5 hPa 0,0 l/m 2 min 0 min 0,0 UV-I 237 W/m 10,3 km/h (2 Bft)
06.11.2013 10:18 9,9 C 9,4 C 90 % 1001,7 hPa 0,0 l/m 2 min 0 min 0,0 UV-I 255 W/m 10,3 km/h (2 Bft)
06.11.2013 10:20 10,0 C 9,4 C 90 % 1001,8 hPa 0,0 l/m 0 min 0 min 0,0 UV-I 167 W/m 18,0 km/h (3 Bft)
06.11.2013 10:22 10,1 C 9,4 C 90 % 1001,8 hPa 0,0 l/m 0 min 0 min 0,0 UV-I 128 W/m 15,4 km/h (3 Bft)
06.11.2013 10:24 10,1 C 9,4 C 90 % 1001,9 hPa 0,0 l/m 0 min 0 min 0,0 UV-I 116 W/m 15,4 km/h (3 Bft)
06.11.2013 10:26 10,1 C 9,4 C 89 % 1001,9 hPa 0,0 l/m 0 min 0 min 0,0 UV-I 125 W/m 15,4 km/h (3 Bft)
06.11.2013 10:28 10,1 C 9,4 C 89 % 1001,7 hPa 0,0 l/m 0 min 0 min 0,0 UV-I 128 W/m 10,3 km/h (2 Bft)
06.11.2013 10:30 10,1 C 9,4 C 89 % 1001,7 hPa 0,0 l/m 0 min 0 min 0,0 UV-I 134 W/m 7,7 km/h (2 Bft)
06.11.2013 10:32 10,1 C 9,4 C 89 % 1001,7 hPa 0,0 l/m 0 min 0 min 0,0 UV-I 153 W/m 12,9 km/h (3 Bft)
06.11.2013 10:34 10,2 C 9,4 C 89 % 1001,6 hPa 0,0 l/m 0 min 0 min 0,0 UV-I 158 W/m 2,6 km/h (1 Bft)
06.11.2013 10:36 10,2 C 9,4 C 89 % 1001,5 hPa 0,0 l/m 0 min 0 min 0,0 UV-I 160 W/m 12,9 km/h (3 Bft)
06.11.2013 10:38 10,2 C 9,4 C 89 % 1001,5 hPa 0,0 l/m 0 min 0 min 0,0 UV-I 141 W/m 18,0 km/h (3 Bft)
06.11.2013 10:40 10,2 C 9,4 C 89 % 1001,6 hPa 0,0 l/m 0 min 0 min 0,0 UV-I 134 W/m 25,7 km/h (4 Bft)
06.11.2013 10:42 10,3 C 9,4 C 89 % 1001,6 hPa 0,0 l/m 0 min 0 min 0,0 UV-I 148 W/m 7,7 km/h (2 Bft)
06.11.2013 10:44 10,3 C 9,4 C 89 % 1001,6 hPa 0,0 l/m 0 min 0 min 0,0 UV-I 155 W/m 18,0 km/h (3 Bft)
06.11.2013 10:46 10,3 C 9,4 C 89 % 1001,7 hPa 0,0 l/m 0 min 0 min 0,0 UV-I 153 W/m 18,0 km/h (3 Bft)
06.11.2013 10:48 10,3 C 9,4 C 89 % 1001,7 hPa 0,0 l/m 0 min 0 min 0,0 UV-I 137 W/m 15,4 km/h (3 Bft)
06.11.2013 10:50 10,3 C 9,4 C 89 % 1001,7 hPa 0,0 l/m 0 min 0 min 0,0 UV-I 141 W/m 15,4 km/h (3 Bft)
06.11.2013 10:52 10,4 C 9,4 C 89 % 1001,6 hPa 0,0 l/m 0 min 0 min 0,0 UV-I 153 W/m 18,0 km/h (3 Bft)
06.11.2013 10:54 10,4 C 9,4 C 88 % 1001,6 hPa 0,0 l/m 0 min 0 min 0,0 UV-I 149 W/m 10,3 km/h (2 Bft)
06.11.2013 10:56 10,4 C 9,4 C 89 % 1001,6 hPa 0,0 l/m 0 min 0 min 0,0 UV-I 141 W/m 10,3 km/h (2 Bft)
06.11.2013 10:58 10,4 C 9,4 C 88 % 1001,6 hPa 0,0 l/m 0 min 0 min 0,0 UV-I 137 W/m 10,3 km/h (2 Bft)
06.11.2013 11:00 10,5 C 9,4 C 88 % 1001,6 hPa 0,0 l/m 0 min 0 min 0,0 UV-I 146 W/m 10,3 km/h (2 Bft)
06.11.2013 11:02 10,5 C 9,4 C 88 % 1001,5 hPa 0,0 l/m 0 min 0 min 0,0 UV-I 155 W/m 7,7 km/h (2 Bft)
06.11.2013 11:04 10,6 C 9,4 C 88 % 1001,5 hPa 0,0 l/m 0 min 0 min 0,0 UV-I 160 W/m 5,1 km/h (1 Bft)
06.11.2013 11:06 10,6 C 10,0 C 88 % 1001,7 hPa 0,0 l/m 0 min 0 min 0,0 UV-I 169 W/m 5,1 km/h (1 Bft)
06.11.2013 11:08 10,6 C 10,0 C 88 % 1001,7 hPa 0,0 l/m 0 min 0 min 0,0 UV-I 176 W/m 0,0 km/h (0 Bft)
06.11.2013 11:10 10,7 C 10,0 C 88 % 1001,7 hPa 0,0 l/m 0 min 0 min 0,0 UV-I 160 W/m 12,9 km/h (3 Bft)
06.11.2013 11:12 10,7 C 10,0 C 88 % 1001,7 hPa 0,0 l/m 0 min 0 min 0,0 UV-I 151 W/m 7,7 km/h (2 Bft)
06.11.2013 11:14 10,7 C 10,0 C 88 % 1001,7 hPa 0,0 l/m 0 min 0 min 0,0 UV-I 141 W/m 5,1 km/h (1 Bft)
06.11.2013 11:16 10,7 C 10,0 C 87 % 1001,8 hPa 0,0 l/m 0 min 0 min 0,0 UV-I 139 W/m 10,3 km/h (2 Bft)
06.11.2013 11:18 10,7 C 10,0 C 87 % 1001,9 hPa 0,0 l/m 0 min 0 min 0,0 UV-I 139 W/m 15,4 km/h (3 Bft)
06.11.2013 11:20 10,8 C 10,0 C 87 % 1001,9 hPa 0,0 l/m 0 min 0 min 0,0 UV-I 134 W/m 15,4 km/h (3 Bft)
06.11.2013 11:22 10,8 C 10,0 C 87 % 1001,9 hPa 0,0 l/m 0 min 0 min 0,0 UV-I 134 W/m 12,9 km/h (3 Bft)
06.11.2013 11:24 10,8 C 10,0 C 87 % 1001,9 hPa 0,0 l/m 0 min 0 min 0,0 UV-I 146 W/m 10,3 km/h (2 Bft)
06.11.2013 11:26 10,8 C 10,0 C 87 % 1001,9 hPa 0,0 l/m 0 min 0 min 0,0 UV-I 132 W/m 18,0 km/h (3 Bft)
06.11.2013 11:28 10,8 C 10,0 C 87 % 1001,9 hPa 0,0 l/m 0 min 0 min 0,0 UV-I 121 W/m 7,7 km/h (2 Bft)
06.11.2013 11:30 10,8 C 10,0 C 87 % 1001,9 hPa 0,0 l/m 0 min 0 min 0,0 UV-I 153 W/m 5,1 km/h (1 Bft)
06.11.2013 11:32 10,8 C 10,0 C 87 % 1001,9 hPa 0,0 l/m 0 min 0 min 0,0 UV-I 181 W/m 7,7 km/h (2 Bft)
06.11.2013 11:34 10,9 C 10,0 C 87 % 1002,0 hPa 0,0 l/m 0 min 0 min 0,0 UV-I 178 W/m 7,7 km/h (2 Bft)
06.11.2013 11:36 10,9 C 10,0 C 86 % 1002,0 hPa 0,0 l/m 0 min 0 min 0,0 UV-I 162 W/m 7,7 km/h (2 Bft)
06.11.2013 11:38 10,9 C 10,0 C 86 % 1001,9 hPa 0,0 l/m 0 min 0 min 0,0 UV-I 153 W/m 12,9 km/h (3 Bft)
06.11.2013 11:40 10,9 C 10,0 C 86 % 1001,8 hPa 0,0 l/m 0 min 0 min 0,0 UV-I 153 W/m 18,0 km/h (3 Bft)
06.11.2013 11:42 11,0 C 10,0 C 86 % 1001,9 hPa 0,0 l/m 0 min 0 min 0,0 UV-I 153 W/m 15,4 km/h (3 Bft)
06.11.2013 11:44 11,0 C 10,0 C 86 % 1001,9 hPa 0,0 l/m 0 min 0 min 0,0 UV-I 146 W/m 10,3 km/h (2 Bft)
06.11.2013 11:46 11,0 C 10,0 C 86 % 1001,9 hPa 0,0 l/m 0 min 0 min 0,0 UV-I 146 W/m 15,4 km/h (3 Bft)
06.11.2013 11:48 11,0 C 10,0 C 85 % 1001,9 hPa 0,0 l/m 0 min 0 min 0,0 UV-I 165 W/m 18,0 km/h (3 Bft)
06.11.2013 11:50 11,1 C 10,0 C 85 % 1001,9 hPa 0,0 l/m 0 min 0 min 0,0 UV-I 149 W/m 15,4 km/h (3 Bft)
06.11.2013 11:52 11,1 C 10,0 C 85 % 1001,9 hPa 0,0 l/m 0 min 0 min 0,0 UV-I 137 W/m 15,4 km/h (3 Bft)
06.11.2013 11:54 11,1 C 10,0 C 85 % 1002,0 hPa 0,0 l/m 0 min 0 min 0,0 UV-I 120 W/m 12,9 km/h (3 Bft)
06.11.2013 11:56 11,1 C 10,0 C 85 % 1001,9 hPa 0,0 l/m 0 min 0 min 0,0 UV-I 125 W/m 5,1 km/h (1 Bft)
06.11.2013 11:58 11,1 C 10,0 C 85 % 1002,0 hPa 0,0 l/m 0 min 0 min 0,0 UV-I 135 W/m 10,3 km/h (2 Bft)
06.11.2013 12:00 11,1 C 10,0 C 85 % 1001,9 hPa 0,0 l/m 0 min 0 min 0,0 UV-I 123 W/m 20,6 km/h (4 Bft)
06.11.2013 12:02 11,1 C 10,0 C 85 % 1001,9 hPa 0,0 l/m 0 min 0 min 0,0 UV-I 118 W/m 15,4 km/h (3 Bft)
06.11.2013 12:06 11,1 C 10,0 C 85 % 1001,8 hPa 0,0 l/m 0 min 0 min 0,0 UV-I 114 W/m 15,4 km/h (3 Bft)
06.11.2013 12:08 11,1 C 10,0 C 85 % 1001,8 hPa 0,0 l/m 0 min 0 min 0,0 UV-I 113 W/m 10,3 km/h (2 Bft)
06.11.2013 12:10 11,1 C 10,0 C 85 % 1001,9 hPa 0,0 l/m 0 min 0 min 0,0 UV-I 97 W/m 10,3 km/h (2 Bft)
06.11.2013 12:12 11,1 C 10,0 C 85 % 1001,9 hPa 0,0 l/m 0 min 0 min 0,0 UV-I 93 W/m 15,4 km/h (3 Bft)
06.11.2013 12:14 11,1 C 10,0 C 85 % 1002,0 hPa 0,0 l/m 0 min 0 min 0,0 UV-I 97 W/m 7,7 km/h (2 Bft)
06.11.2013 12:16 11,1 C 10,0 C 85 % 1001,9 hPa 0,0 l/m 0 min 0 min 0,0 UV-I 97 W/m 18,0 km/h (3 Bft)
06.11.2013 12:18 11,1 C 10,0 C 85 % 1001,9 hPa 0,0 l/m 0 min 0 min 0,0 UV-I 104 W/m 15,4 km/h (3 Bft)
06.11.2013 12:20 11,1 C 10,0 C 85 % 1001,9 hPa 0,0 l/m 0 min 0 min 0,0 UV-I 102 W/m 12,9 km/h (3 Bft)
06.11.2013 12:22 11,1 C 10,0 C 85 % 1001,9 hPa 0,0 l/m 0 min 0 min 0,0 UV-I 98 W/m 12,9 km/h (3 Bft)
06.11.2013 12:24 11,1 C 10,0 C 85 % 1002,0 hPa 0,0 l/m 0 min 0 min 0,0 UV-I 95 W/m 18,0 km/h (3 Bft)
06.11.2013 12:26 11,1 C 10,0 C 85 % 1001,9 hPa 0,0 l/m 0 min 0 min 0,0 UV-I 90 W/m 12,9 km/h (3 Bft)
06.11.2013 12:28 11,1 C 10,0 C 85 % 1001,9 hPa 0,0 l/m 0 min 0 min 0,0 UV-I 88 W/m 12,9 km/h (3 Bft)
06.11.2013 12:30 11,1 C 10,0 C 85 % 1002,0 hPa 0,0 l/m 0 min 0 min 0,0 UV-I 86 W/m 15,4 km/h (3 Bft)
06.11.2013 12:32 11,1 C 10,0 C 85 % 1001,8 hPa 0,0 l/m 0 min 0 min 0,0 UV-I 88 W/m 15,4 km/h (3 Bft)
06.11.2013 12:34 11,1 C 10,0 C 85 % 1001,8 hPa 0,0 l/m 0 min 0 min 0,0 UV-I 90 W/m 2,6 km/h (1 Bft)
06.11.2013 12:36 11,1 C 10,0 C 85 % 1001,8 hPa 0,0 l/m 0 min 0 min 0,0 UV-I 97 W/m 10,3 km/h (2 Bft)
06.11.2013 12:38 11,1 C 10,0 C 85 % 1001,8 hPa 0,0 l/m 0 min 0 min 0,0 UV-I 93 W/m 7,7 km/h (2 Bft)
06.11.2013 12:40 11,1 C 10,0 C 85 % 1001,8 hPa 0,0 l/m 0 min 0 min 0,0 UV-I 86 W/m 7,7 km/h (2 Bft)
06.11.2013 12:42 11,1 C 10,0 C 85 % 1001,8 hPa 0,0 l/m 0 min 0 min 0,0 UV-I 79 W/m 15,4 km/h (3 Bft)
06.11.2013 12:44 11,1 C 10,0 C 85 % 1001,8 hPa 0,0 l/m 0 min 0 min 0,0 UV-I 77 W/m 10,3 km/h (2 Bft)
06.11.2013 12:46 11,1 C 10,0 C 85 % 1002,0 hPa 0,0 l/m 0 min 0 min 0,0 UV-I 93 W/m 12,9 km/h (3 Bft)
06.11.2013 12:48 11,1 C 10,0 C 85 % 1002,0 hPa 0,0 l/m 0 min 0 min 0,0 UV-I 100 W/m 12,9 km/h (3 Bft)
06.11.2013 12:50 11,1 C 10,0 C 85 % 1002,0 hPa 0,0 l/m 0 min 0 min 0,0 UV-I 79 W/m 7,7 km/h (2 Bft)
06.11.2013 12:52 11,1 C 10,0 C 85 % 1001,9 hPa 0,0 l/m 0 min 0 min 0,0 UV-I 77 W/m 20,6 km/h (4 Bft)
06.11.2013 12:54 11,1 C 10,0 C 85 % 1001,9 hPa 0,0 l/m 0 min 0 min 0,0 UV-I 79 W/m 15,4 km/h (3 Bft)
06.11.2013 12:56 11,1 C 10,0 C 85 % 1001,9 hPa 0,0 l/m 0 min 0 min 0,0 UV-I 69 W/m 12,9 km/h (3 Bft)
06.11.2013 12:58 11,1 C 10,0 C 85 % 1002,0 hPa 0,0 l/m 0 min 0 min 0,0 UV-I 60 W/m 12,9 km/h (3 Bft)
06.11.2013 13:00 11,1 C 10,0 C 85 % 1002,0 hPa 0,0 l/m 0 min 0 min 0,0 UV-I 63 W/m 12,9 km/h (3 Bft)
06.11.2013 13:02 11,1 C 10,0 C 85 % 1002,0 hPa 0,0 l/m 0 min 2 min 0,0 UV-I 58 W/m 5,1 km/h (1 Bft)
06.11.2013 13:04 11,1 C 9,4 C 85 % 1002,0 hPa 0,0 l/m 0 min 2 min 0,0 UV-I 49 W/m 5,1 km/h (1 Bft)
06.11.2013 13:06 11,0 C 9,4 C 86 % 1002,0 hPa 0,0 l/m 0 min 2 min 0,0 UV-I 53 W/m 0,0 km/h (0 Bft)
06.11.2013 13:08 10,9 C 8,9 C 87 % 1002,0 hPa 0,0 l/m 0 min 2 min 0,0 UV-I 46 W/m 10,3 km/h (2 Bft)
06.11.2013 13:10 10,9 C 8,9 C 87 % 1002,0 hPa 0,0 l/m 0 min 2 min 0,0 UV-I 46 W/m 7,7 km/h (2 Bft)
06.11.2013 13:12 10,9 C 8,9 C 87 % 1002,0 hPa 0,0 l/m 0 min 2 min 0,0 UV-I 44 W/m 10,3 km/h (2 Bft)
06.11.2013 13:14 10,8 C 8,9 C 87 % 1002,0 hPa 0,0 l/m 0 min 2 min 0,0 UV-I 51 W/m 2,6 km/h (1 Bft)
06.11.2013 13:16 10,8 C 8,9 C 87 % 1002,1 hPa 0,0 l/m 0 min 2 min 0,0 UV-I 58 W/m 5,1 km/h (1 Bft)
06.11.2013 13:18 10,8 C 8,9 C 88 % 1002,0 hPa 0,0 l/m 0 min 2 min 0,0 UV-I 62 W/m 15,4 km/h (3 Bft)
06.11.2013 13:20 10,7 C 8,9 C 88 % 1002,0 hPa 0,0 l/m 0 min 2 min 0,0 UV-I 60 W/m 15,4 km/h (3 Bft)
06.11.2013 13:22 10,7 C 8,9 C 88 % 1002,0 hPa 0,0 l/m 0 min 2 min 0,0 UV-I 58 W/m 7,7 km/h (2 Bft)
06.11.2013 13:24 10,7 C 8,9 C 88 % 1002,0 hPa 0,0 l/m 0 min 2 min 0,0 UV-I 58 W/m 10,3 km/h (2 Bft)
06.11.2013 13:26 10,8 C 8,9 C 88 % 1002,0 hPa 0,0 l/m 0 min 2 min 0,0 UV-I 54 W/m 10,3 km/h (2 Bft)
06.11.2013 13:28 10,7 C 8,9 C 89 % 1002,1 hPa 0,0 l/m 0 min 2 min 0,0 UV-I 58 W/m 15,4 km/h (3 Bft)
06.11.2013 13:30 10,7 C 8,9 C 89 % 1002,0 hPa 0,0 l/m 0 min 2 min 0,0 UV-I 63 W/m 10,3 km/h (2 Bft)
06.11.2013 13:32 10,8 C 8,9 C 89 % 1002,1 hPa 0,0 l/m 0 min 2 min 0,0 UV-I 67 W/m 2,6 km/h (1 Bft)
06.11.2013 13:34 10,8 C 8,9 C 89 % 1002,1 hPa 0,0 l/m 0 min 2 min 0,0 UV-I 62 W/m 2,6 km/h (1 Bft)
06.11.2013 13:36 10,8 C 8,9 C 89 % 1002,1 hPa 0,0 l/m 0 min 0 min 0,0 UV-I 56 W/m 12,9 km/h (3 Bft)
06.11.2013 13:38 10,8 C 8,9 C 89 % 1002,1 hPa 0,0 l/m 0 min 0 min 0,0 UV-I 46 W/m 7,7 km/h (2 Bft)
06.11.2013 13:40 10,8 C 8,9 C 89 % 1002,1 hPa 0,0 l/m 0 min 0 min 0,0 UV-I 46 W/m 20,6 km/h (4 Bft)
06.11.2013 13:42 10,8 C 8,9 C 89 % 1002,2 hPa 0,0 l/m 0 min 2 min 0,0 UV-I 46 W/m 10,3 km/h (2 Bft)
06.11.2013 13:44 10,8 C 8,9 C 89 % 1002,2 hPa 0,0 l/m 0 min 2 min 0,0 UV-I 44 W/m 12,9 km/h (3 Bft)
06.11.2013 13:46 10,8 C 8,9 C 89 % 1002,3 hPa 0,0 l/m 0 min 2 min 0,0 UV-I 47 W/m 10,3 km/h (2 Bft)
06.11.2013 13:48 10,8 C 8,9 C 89 % 1002,1 hPa 0,0 l/m 0 min 2 min 0,0 UV-I 46 W/m 10,3 km/h (2 Bft)
06.11.2013 13:50 10,8 C 8,9 C 89 % 1002,2 hPa 0,0 l/m 0 min 2 min 0,0 UV-I 40 W/m 12,9 km/h (3 Bft)
06.11.2013 13:52 10,8 C 8,9 C 89 % 1002,1 hPa 0,0 l/m 0 min 2 min 0,0 UV-I 39 W/m 7,7 km/h (2 Bft)
06.11.2013 13:54 10,7 C 8,9 C 89 % 1002,2 hPa 0,0 l/m 0 min 2 min 0,0 UV-I 37 W/m 7,7 km/h (2 Bft)
06.11.2013 13:56 10,7 C 8,9 C 90 % 1002,1 hPa 0,0 l/m 0 min 2 min 0,0 UV-I 39 W/m 12,9 km/h (3 Bft)
06.11.2013 13:58 10,7 C 8,9 C 90 % 1002,1 hPa 0,0 l/m 0 min 2 min 0,0 UV-I 47 W/m 5,1 km/h (1 Bft)
06.11.2013 14:00 10,7 C 8,9 C 90 % 1002,1 hPa 0,0 l/m 0 min 2 min 0,0 UV-I 47 W/m 10,3 km/h (2 Bft)
06.11.2013 14:02 10,7 C 8,9 C 90 % 1002,0 hPa 0,0 l/m 0 min 2 min 0,0 UV-I 51 W/m 7,7 km/h (2 Bft)
06.11.2013 14:04 10,6 C 8,9 C 90 % 1002,1 hPa 0,0 l/m 0 min 2 min 0,0 UV-I 53 W/m 10,3 km/h (2 Bft)
06.11.2013 14:06 10,6 C 8,9 C 91 % 1002,1 hPa 0,0 l/m 0 min 2 min 0,0 UV-I 53 W/m 10,3 km/h (2 Bft)
06.11.2013 14:08 10,6 C 8,9 C 91 % 1002,2 hPa 0,0 l/m 0 min 2 min 0,0 UV-I 30 W/m 7,7 km/h (2 Bft)
06.11.2013 14:10 10,6 C 8,9 C 91 % 1002,1 hPa 0,0 l/m 0 min 2 min 0,0 UV-I 32 W/m 5,1 km/h (1 Bft)
06.11.2013 14:12 10,6 C 8,9 C 92 % 1002,1 hPa 0,0 l/m 0 min 2 min 0,0 UV-I 37 W/m 20,6 km/h (4 Bft)
06.11.2013 14:14 10,5 C 8,9 C 92 % 1002,1 hPa 0,0 l/m 0 min 2 min 0,0 UV-I 39 W/m 10,3 km/h (2 Bft)
06.11.2013 14:16 10,5 C 8,9 C 92 % 1002,1 hPa 0,0 l/m 0 min 2 min 0,0 UV-I 42 W/m 5,1 km/h (1 Bft)
06.11.2013 14:18 10,5 C 8,9 C 92 % 1002,2 hPa 0,0 l/m 0 min 0 min 0,0 UV-I 40 W/m 5,1 km/h (1 Bft)
06.11.2013 14:20 10,4 C 8,9 C 92 % 1002,1 hPa 0,0 l/m 0 min 2 min 0,0 UV-I 42 W/m 5,1 km/h (1 Bft)
06.11.2013 14:22 10,4 C 8,9 C 93 % 1002,1 hPa 0,2 l/m 0 min 2 min 0,0 UV-I 42 W/m 10,3 km/h (2 Bft)
06.11.2013 14:24 10,4 C 8,9 C 93 % 1002,2 hPa 0,0 l/m 0 min 2 min 0,0 UV-I 47 W/m 12,9 km/h (3 Bft)
06.11.2013 14:26 10,4 C 8,9 C 93 % 1002,1 hPa 0,0 l/m 0 min 2 min 0,0 UV-I 53 W/m 2,6 km/h (1 Bft)
06.11.2013 14:28 10,4 C 8,9 C 93 % 1002,1 hPa 0,0 l/m 0 min 2 min 0,0 UV-I 56 W/m 0,0 km/h (0 Bft)
06.11.2013 14:30 10,4 C 8,9 C 93 % 1002,1 hPa 0,0 l/m 0 min 2 min 0,0 UV-I 63 W/m 5,1 km/h (1 Bft)
06.11.2013 14:32 10,4 C 8,9 C 94 % 1002,0 hPa 0,0 l/m 0 min 2 min 0,0 UV-I 56 W/m 0,0 km/h (0 Bft)
06.11.2013 14:34 10,4 C 8,9 C 94 % 1002,1 hPa 0,0 l/m 0 min 2 min 0,0 UV-I 51 W/m 0,0 km/h (0 Bft)
06.11.2013 14:36 10,4 C 8,9 C 94 % 1002,1 hPa 0,0 l/m 0 min 2 min 0,0 UV-I 49 W/m 2,6 km/h (1 Bft)
06.11.2013 14:38 10,4 C 8,9 C 94 % 1002,1 hPa 0,0 l/m 0 min 2 min 0,0 UV-I 51 W/m 7,7 km/h (2 Bft)
06.11.2013 14:40 10,4 C 8,9 C 94 % 1002,2 hPa 0,0 l/m 0 min 2 min 0,0 UV-I 58 W/m 12,9 km/h (3 Bft)
06.11.2013 14:42 10,4 C 8,9 C 95 % 1002,1 hPa 0,0 l/m 0 min 0 min 0,0 UV-I 63 W/m 7,7 km/h (2 Bft)
06.11.2013 14:44 10,4 C 8,9 C 95 % 1002,1 hPa 0,0 l/m 0 min 0 min 0,0 UV-I 56 W/m 7,7 km/h (2 Bft)
06.11.2013 14:46 10,4 C 8,9 C 95 % 1002,1 hPa 0,0 l/m 0 min 0 min 0,0 UV-I 53 W/m 2,6 km/h (1 Bft)
06.11.2013 14:48 10,4 C 8,9 C 95 % 1002,1 hPa 0,0 l/m 0 min 2 min 0,0 UV-I 53 W/m 0,0 km/h (0 Bft)
06.11.2013 14:50 10,4 C 8,9 C 95 % 1002,1 hPa 0,0 l/m 0 min 0 min 0,0 UV-I 47 W/m 0,0 km/h (0 Bft)
06.11.2013 14:52 10,4 C 8,9 C 95 % 1002,1 hPa 0,0 l/m 0 min 0 min 0,0 UV-I 47 W/m 10,3 km/h (2 Bft)
06.11.2013 14:54 10,4 C 8,9 C 95 % 1002,1 hPa 0,0 l/m 0 min 2 min 0,0 UV-I 33 W/m 5,1 km/h (1 Bft)
06.11.2013 14:56 10,4 C 8,9 C 95 % 1002,1 hPa 0,0 l/m 0 min 0 min 0,0 UV-I 28 W/m 7,7 km/h (2 Bft)
06.11.2013 14:58 10,4 C 8,9 C 95 % 1002,3 hPa 0,0 l/m 0 min 0 min 0,0 UV-I 30 W/m 10,3 km/h (2 Bft)
06.11.2013 15:00 10,4 C 8,9 C 95 % 1002,2 hPa 0,0 l/m 0 min 0 min 0,0 UV-I 28 W/m 10,3 km/h (2 Bft)
06.11.2013 15:02 10,4 C 8,9 C 95 % 1002,2 hPa 0,0 l/m 0 min 0 min 0,0 UV-I 25 W/m 7,7 km/h (2 Bft)
06.11.2013 15:04 10,4 C 8,9 C 95 % 1002,2 hPa 0,0 l/m 0 min 0 min 0,0 UV-I 25 W/m 0,0 km/h (0 Bft)
06.11.2013 15:06 10,4 C 8,9 C 95 % 1002,2 hPa 0,0 l/m 0 min 0 min 0,0 UV-I 19 W/m 2,6 km/h (1 Bft)
06.11.2013 15:08 10,4 C 8,9 C 95 % 1002,2 hPa 0,0 l/m 0 min 0 min 0,0 UV-I 18 W/m 0,0 km/h (0 Bft)
06.11.2013 15:10 10,4 C 8,9 C 96 % 1002,2 hPa 0,0 l/m 0 min 0 min 0,0 UV-I 18 W/m 0,0 km/h (0 Bft)
06.11.2013 15:12 10,4 C 8,9 C 96 % 1002,1 hPa 0,0 l/m 0 min 0 min 0,0 UV-I 30 W/m 0,0 km/h (0 Bft)
06.11.2013 15:14 10,4 C 8,9 C 96 % 1002,3 hPa 0,0 l/m 0 min 0 min 0,0 UV-I 30 W/m 0,0 km/h (0 Bft)
06.11.2013 15:16 10,4 C 8,9 C 96 % 1002,3 hPa 0,0 l/m 0 min 0 min 0,0 UV-I 21 W/m 2,6 km/h (1 Bft)
06.11.2013 15:18 10,4 C 8,9 C 96 % 1002,2 hPa 0,0 l/m 0 min 0 min 0,0 UV-I 21 W/m 0,0 km/h (0 Bft)
06.11.2013 15:20 10,4 C 8,9 C 96 % 1002,2 hPa 0,0 l/m 0 min 0 min 0,0 UV-I 23 W/m 0,0 km/h (0 Bft)
06.11.2013 15:22 10,4 C 8,9 C 96 % 1002,2 hPa 0,0 l/m 0 min 0 min 0,0 UV-I 23 W/m 7,7 km/h (2 Bft)
06.11.2013 15:24 10,4 C 8,9 C 96 % 1002,2 hPa 0,0 l/m 0 min 0 min 0,0 UV-I 26 W/m 7,7 km/h (2 Bft)
06.11.2013 15:26 10,4 C 8,9 C 96 % 1002,1 hPa 0,0 l/m 0 min 0 min 0,0 UV-I 23 W/m 10,3 km/h (2 Bft)
06.11.2013 15:28 10,4 C 8,9 C 96 % 1002,2 hPa 0,0 l/m 0 min 0 min 0,0 UV-I 21 W/m 0,0 km/h (0 Bft)
06.11.2013 15:30 10,4 C 8,9 C 96 % 1002,2 hPa 0,0 l/m 0 min 0 min 0,0 UV-I 23 W/m 7,7 km/h (2 Bft)
06.11.2013 15:32 10,4 C 8,9 C 96 % 1002,2 hPa 0,0 l/m 0 min 0 min 0,0 UV-I 23 W/m 10,3 km/h (2 Bft)
06.11.2013 15:34 10,4 C 8,9 C 96 % 1002,3 hPa 0,0 l/m 0 min 0 min 0,0 UV-I 18 W/m 0,0 km/h (0 Bft)
06.11.2013 15:36 10,4 C 8,9 C 96 % 1002,3 hPa 0,0 l/m 0 min 0 min 0,0 UV-I 18 W/m 0,0 km/h (0 Bft)
06.11.2013 15:38 10,4 C 8,9 C 96 % 1002,3 hPa 0,0 l/m 0 min 0 min 0,0 UV-I 14 W/m 2,6 km/h (1 Bft)
06.11.2013 15:40 10,4 C 8,9 C 96 % 1002,2 hPa 0,0 l/m 0 min 2 min 0,0 UV-I 12 W/m 5,1 km/h (1 Bft)
06.11.2013 15:42 10,5 C 8,9 C 96 % 1002,3 hPa 0,0 l/m 0 min 2 min 0,0 UV-I 16 W/m 0,0 km/h (0 Bft)
06.11.2013 15:44 10,5 C 8,9 C 96 % 1002,2 hPa 0,0 l/m 0 min 2 min 0,0 UV-I 19 W/m 0,0 km/h (0 Bft)
06.11.2013 15:46 10,5 C 8,9 C 96 % 1002,2 hPa 0,0 l/m 0 min 2 min 0,0 UV-I 21 W/m 0,0 km/h (0 Bft)
06.11.2013 15:48 10,5 C 8,9 C 96 % 1002,2 hPa 0,0 l/m 0 min 2 min 0,0 UV-I 16 W/m 0,0 km/h (0 Bft)
06.11.2013 15:50 10,5 C 8,9 C 96 % 1002,2 hPa 0,0 l/m 0 min 2 min 0,0 UV-I 16 W/m 0,0 km/h (0 Bft)
06.11.2013 15:52 10,5 C 8,9 C 96 % 1002,2 hPa 0,0 l/m 0 min 2 min 0,0 UV-I 18 W/m 0,0 km/h (0 Bft)
06.11.2013 15:54 10,5 C 8,9 C 96 % 1002,2 hPa 0,0 l/m 0 min 2 min 0,0 UV-I 14 W/m 0,0 km/h (0 Bft)
06.11.2013 15:56 10,5 C 8,9 C 96 % 1002,3 hPa 0,0 l/m 0 min 2 min 0,0 UV-I 12 W/m 0,0 km/h (0 Bft)
06.11.2013 15:58 10,5 C 8,9 C 96 % 1002,2 hPa 0,0 l/m 0 min 2 min 0,0 UV-I 11 W/m 0,0 km/h (0 Bft)
06.11.2013 16:00 10,5 C 8,9 C 97 % 1002,2 hPa 0,0 l/m 0 min 2 min 0,0 UV-I 7 W/m 0,0 km/h (0 Bft)
06.11.2013 16:02 10,5 C 8,9 C 97 % 1002,2 hPa 0,0 l/m 0 min 2 min 0,0 UV-I 7 W/m 0,0 km/h (0 Bft)
06.11.2013 16:04 10,5 C 8,9 C 97 % 1002,3 hPa 0,0 l/m 0 min 2 min 0,0 UV-I 7 W/m 0,0 km/h (0 Bft)
06.11.2013 16:06 10,5 C 8,9 C 97 % 1002,2 hPa 0,2 l/m 0 min 2 min 0,0 UV-I 9 W/m 0,0 km/h (0 Bft)
06.11.2013 16:08 10,5 C 8,9 C 97 % 1002,2 hPa 0,0 l/m 0 min 2 min 0,0 UV-I 9 W/m 0,0 km/h (0 Bft)
06.11.2013 16:10 10,4 C 8,9 C 97 % 1002,2 hPa 0,0 l/m 0 min 2 min 0,0 UV-I 9 W/m 0,0 km/h (0 Bft)
06.11.2013 16:12 10,4 C 8,9 C 97 % 1002,3 hPa 0,0 l/m 0 min 2 min 0,0 UV-I 9 W/m 0,0 km/h (0 Bft)
06.11.2013 16:14 10,4 C 8,9 C 97 % 1002,2 hPa 0,0 l/m 0 min 2 min 0,0 UV-I 11 W/m 0,0 km/h (0 Bft)
06.11.2013 16:16 10,4 C 8,9 C 97 % 1002,2 hPa 0,0 l/m 0 min 2 min 0,0 UV-I 9 W/m 0,0 km/h (0 Bft)
06.11.2013 16:18 10,4 C 8,9 C 97 % 1002,2 hPa 0,0 l/m 0 min 2 min 0,0 UV-I 11 W/m 0,0 km/h (0 Bft)
06.11.2013 16:20 10,4 C 8,9 C 97 % 1002,1 hPa 0,0 l/m 0 min 2 min 0,0 UV-I 12 W/m 0,0 km/h (0 Bft)
06.11.2013 16:22 10,4 C 8,9 C 97 % 1002,1 hPa 0,0 l/m 0 min 2 min 0,0 UV-I 16 W/m 0,0 km/h (0 Bft)
06.11.2013 16:24 10,4 C 8,9 C 97 % 1002,1 hPa 0,0 l/m 0 min 2 min 0,0 UV-I 16 W/m 0,0 km/h (0 Bft)
06.11.2013 16:26 10,4 C 8,9 C 97 % 1002,1 hPa 0,0 l/m 0 min 2 min 0,0 UV-I 14 W/m 0,0 km/h (0 Bft)
06.11.2013 16:28 10,4 C 9,4 C 97 % 1002,1 hPa 0,0 l/m 0 min 2 min 0,0 UV-I 11 W/m 0,0 km/h (0 Bft)
06.11.2013 16:30 10,4 C 8,9 C 97 % 1002,2 hPa 0,2 l/m 0 min 2 min 0,0 UV-I 9 W/m 0,0 km/h (0 Bft)
06.11.2013 16:32 10,4 C 8,9 C 97 % 1002,1 hPa 0,0 l/m 0 min 2 min 0,0 UV-I 9 W/m 0,0 km/h (0 Bft)
06.11.2013 16:34 10,4 C 8,9 C 97 % 1002,1 hPa 0,0 l/m 0 min 0 min 0,0 UV-I 7 W/m 0,0 km/h (0 Bft)
06.11.2013 16:36 10,4 C 8,9 C 97 % 1002,1 hPa 0,0 l/m 0 min 0 min 0,0 UV-I 7 W/m 0,0 km/h (0 Bft)
06.11.2013 16:38 10,4 C 8,9 C 97 % 1002,0 hPa 0,0 l/m 0 min 0 min 0,0 UV-I 9 W/m 0,0 km/h (0 Bft)
06.11.2013 16:40 10,4 C 8,9 C 97 % 1001,9 hPa 0,0 l/m 0 min 0 min 0,0 UV-I 9 W/m 0,0 km/h (0 Bft)
06.11.2013 16:42 10,4 C 8,9 C 97 % 1001,9 hPa 0,0 l/m 0 min 0 min 0,0 UV-I 7 W/m 0,0 km/h (0 Bft)
06.11.2013 16:44 10,4 C 8,9 C 97 % 1002,0 hPa 0,0 l/m 0 min 0 min 0,0 UV-I 5 W/m 0,0 km/h (0 Bft)
06.11.2013 16:46 10,4 C 8,9 C 97 % 1002,1 hPa 0,0 l/m 0 min 0 min 0,0 UV-I 0 W/m 0,0 km/h (0 Bft)
06.11.2013 16:48 10,4 C 8,9 C 97 % 1002,1 hPa 0,0 l/m 0 min 0 min 0,0 UV-I 0 W/m 0,0 km/h (0 Bft)
06.11.2013 16:50 10,4 C 8,9 C 97 % 1002,0 hPa 0,0 l/m 0 min 0 min 0,0 UV-I 0 W/m 0,0 km/h (0 Bft)
06.11.2013 16:52 10,4 C 8,9 C 97 % 1002,0 hPa 0,0 l/m 0 min 2 min 0,0 UV-I 0 W/m 0,0 km/h (0 Bft)
06.11.2013 16:54 10,4 C 8,9 C 97 % 1002,0 hPa 0,0 l/m 0 min 0 min 0,0 UV-I 0 W/m 0,0 km/h (0 Bft)
06.11.2013 16:56 10,4 C 8,9 C 97 % 1002,0 hPa 0,0 l/m 0 min 2 min 0,0 UV-I 0 W/m 0,0 km/h (0 Bft)
06.11.2013 16:58 10,4 C 8,9 C 97 % 1002,1 hPa 0,0 l/m 0 min 2 min 0,0 UV-I 0 W/m 0,0 km/h (0 Bft)
06.11.2013 17:00 10,4 C 8,9 C 97 % 1002,1 hPa 0,0 l/m 0 min 2 min 0,0 UV-I 0 W/m 0,0 km/h (0 Bft)
06.11.2013 17:02 10,4 C 8,9 C 97 % 1002,1 hPa 0,0 l/m 0 min 2 min 0,0 UV-I 0 W/m 0,0 km/h (0 Bft)
06.11.2013 17:04 10,4 C 8,9 C 98 % 1002,2 hPa 0,0 l/m 0 min 2 min 0,0 UV-I 0 W/m 0,0 km/h (0 Bft)
06.11.2013 17:06 10,4 C 8,9 C 98 % 1002,1 hPa 0,0 l/m 0 min 0 min 0,0 UV-I 0 W/m 0,0 km/h (0 Bft)
06.11.2013 17:08 10,4 C 8,9 C 98 % 1002,1 hPa 0,0 l/m 0 min 0 min 0,0 UV-I 0 W/m 0,0 km/h (0 Bft)
06.11.2013 17:10 10,4 C 8,9 C 98 % 1002,1 hPa 0,0 l/m 0 min 2 min 0,0 UV-I 0 W/m 0,0 km/h (0 Bft)
06.11.2013 17:12 10,4 C 8,9 C 98 % 1002,2 hPa 0,0 l/m 0 min 2 min 0,0 UV-I 0 W/m 0,0 km/h (0 Bft)
06.11.2013 17:14 10,4 C 8,9 C 98 % 1002,2 hPa 0,0 l/m 0 min 2 min 0,0 UV-I 0 W/m 0,0 km/h (0 Bft)
06.11.2013 17:16 10,4 C 8,9 C 98 % 1002,2 hPa 0,0 l/m 0 min 2 min 0,0 UV-I 0 W/m 0,0 km/h (0 Bft)
06.11.2013 17:18 10,4 C 8,9 C 98 % 1002,1 hPa 0,0 l/m 0 min 2 min 0,0 UV-I 0 W/m 0,0 km/h (0 Bft)
06.11.2013 17:20 10,4 C 8,9 C 98 % 1002,2 hPa 0,2 l/m 0 min 2 min 0,0 UV-I 0 W/m 0,0 km/h (0 Bft)
06.11.2013 17:22 10,4 C 8,9 C 98 % 1002,2 hPa 0,0 l/m 0 min 2 min 0,0 UV-I 0 W/m 0,0 km/h (0 Bft)
06.11.2013 17:24 10,4 C 8,9 C 98 % 1002,2 hPa 0,0 l/m 0 min 2 min 0,0 UV-I 0 W/m 0,0 km/h (0 Bft)
06.11.2013 17:26 10,4 C 9,4 C 98 % 1002,2 hPa 0,0 l/m 0 min 2 min 0,0 UV-I 0 W/m 0,0 km/h (0 Bft)
06.11.2013 17:28 10,4 C 8,9 C 98 % 1002,3 hPa 0,0 l/m 0 min 2 min 0,0 UV-I 0 W/m 0,0 km/h (0 Bft)
06.11.2013 17:30 10,4 C 8,9 C 98 % 1002,3 hPa 0,0 l/m 0 min 2 min 0,0 UV-I 0 W/m 0,0 km/h (0 Bft)
06.11.2013 17:32 10,4 C 9,4 C 98 % 1002,3 hPa 0,0 l/m 0 min 2 min 0,0 UV-I 0 W/m 0,0 km/h (0 Bft)
06.11.2013 17:34 10,4 C 9,4 C 98 % 1002,3 hPa 0,0 l/m 0 min 2 min 0,0 UV-I 0 W/m 0,0 km/h (0 Bft)
06.11.2013 17:36 10,4 C 9,4 C 98 % 1002,3 hPa 0,0 l/m 0 min 2 min 0,0 UV-I 0 W/m 0,0 km/h (0 Bft)
06.11.2013 17:38 10,4 C 9,4 C 98 % 1002,3 hPa 0,0 l/m 0 min 2 min 0,0 UV-I 0 W/m 0,0 km/h (0 Bft)
06.11.2013 17:40 10,4 C 9,4 C 98 % 1002,3 hPa 0,0 l/m 0 min 2 min 0,0 UV-I 0 W/m 0,0 km/h (0 Bft)
06.11.2013 17:42 10,4 C 9,4 C 98 % 1002,3 hPa 0,0 l/m 0 min 2 min 0,0 UV-I 0 W/m 0,0 km/h (0 Bft)
06.11.2013 17:44 10,4 C 9,4 C 98 % 1002,3 hPa 0,2 l/m 0 min 2 min 0,0 UV-I 0 W/m 5,1 km/h (1 Bft)
06.11.2013 17:46 10,4 C 9,4 C 98 % 1002,3 hPa 0,0 l/m 0 min 2 min 0,0 UV-I 0 W/m 2,6 km/h (1 Bft)
06.11.2013 17:48 10,4 C 8,9 C 98 % 1002,3 hPa 0,0 l/m 0 min 2 min 0,0 UV-I 0 W/m 0,0 km/h (0 Bft)
06.11.2013 17:50 10,4 C 8,9 C 98 % 1002,2 hPa 0,0 l/m 0 min 2 min 0,0 UV-I 0 W/m 0,0 km/h (0 Bft)
06.11.2013 17:52 10,4 C 8,9 C 98 % 1002,2 hPa 0,0 l/m 0 min 2 min 0,0 UV-I 0 W/m 2,6 km/h (1 Bft)
06.11.2013 17:54 10,4 C 8,9 C 98 % 1002,1 hPa 0,0 l/m 0 min 2 min 0,0 UV-I 0 W/m 7,7 km/h (2 Bft)
06.11.2013 17:56 10,4 C 8,9 C 98 % 1002,2 hPa 0,0 l/m 0 min 2 min 0,0 UV-I 0 W/m 0,0 km/h (0 Bft)
06.11.2013 17:58 10,4 C 8,9 C 98 % 1002,1 hPa 0,0 l/m 0 min 2 min 0,0 UV-I 0 W/m 2,6 km/h (1 Bft)
06.11.2013 18:00 10,4 C 8,9 C 98 % 1002,1 hPa 0,0 l/m 0 min 2 min 0,0 UV-I 0 W/m 0,0 km/h (0 Bft)
06.11.2013 18:02 10,4 C 8,9 C 98 % 1002,1 hPa 0,2 l/m 0 min 2 min 0,0 UV-I 0 W/m 2,6 km/h (1 Bft)
06.11.2013 18:06 10,4 C 9,4 C 98 % 1002,2 hPa 0,0 l/m 0 min 2 min 0,0 UV-I 0 W/m 0,0 km/h (0 Bft)
06.11.2013 18:08 10,4 C 9,4 C 98 % 1002,2 hPa 0,0 l/m 0 min 2 min 0,0 UV-I 0 W/m 7,7 km/h (2 Bft)
06.11.2013 18:10 10,4 C 9,4 C 98 % 1002,2 hPa 0,0 l/m 0 min 2 min 0,0 UV-I 0 W/m 7,7 km/h (2 Bft)
06.11.2013 18:12 10,4 C 9,4 C 98 % 1002,2 hPa 0,0 l/m 0 min 2 min 0,0 UV-I 0 W/m 10,3 km/h (2 Bft)
06.11.2013 18:14 10,4 C 9,4 C 98 % 1002,2 hPa 0,0 l/m 0 min 2 min 0,0 UV-I 0 W/m 0,0 km/h (0 Bft)
06.11.2013 18:16 10,4 C 9,4 C 98 % 1002,2 hPa 0,0 l/m 0 min 2 min 0,0 UV-I 0 W/m 0,0 km/h (0 Bft)
06.11.2013 18:18 10,4 C 9,4 C 98 % 1002,2 hPa 0,0 l/m 0 min 2 min 0,0 UV-I 0 W/m 5,1 km/h (1 Bft)
06.11.2013 18:20 10,4 C 9,4 C 98 % 1002,2 hPa 0,0 l/m 0 min 2 min 0,0 UV-I 0 W/m 5,1 km/h (1 Bft)
06.11.2013 18:22 10,4 C 9,4 C 98 % 1002,2 hPa 0,0 l/m 0 min 2 min 0,0 UV-I 0 W/m 0,0 km/h (0 Bft)
06.11.2013 18:24 10,4 C 9,4 C 98 % 1002,1 hPa 0,0 l/m 0 min 2 min 0,0 UV-I 0 W/m 2,6 km/h (1 Bft)
06.11.2013 18:26 10,4 C 9,4 C 98 % 1002,2 hPa 0,2 l/m 0 min 2 min 0,0 UV-I 0 W/m 7,7 km/h (2 Bft)
06.11.2013 18:28 10,4 C 9,4 C 98 % 1002,2 hPa 0,0 l/m 0 min 2 min 0,0 UV-I 0 W/m 0,0 km/h (0 Bft)
06.11.2013 18:30 10,4 C 9,4 C 98 % 1002,2 hPa 0,0 l/m 0 min 2 min 0,0 UV-I 0 W/m 2,6 km/h (1 Bft)
06.11.2013 18:32 10,4 C 9,4 C 98 % 1002,1 hPa 0,0 l/m 0 min 2 min 0,0 UV-I 0 W/m 0,0 km/h (0 Bft)
06.11.2013 18:34 10,4 C 9,4 C 98 % 1002,2 hPa 0,0 l/m 0 min 2 min 0,0 UV-I 0 W/m 10,3 km/h (2 Bft)
06.11.2013 18:36 10,4 C 9,4 C 98 % 1002,2 hPa 0,0 l/m 0 min 2 min 0,0 UV-I 0 W/m 7,7 km/h (2 Bft)
06.11.2013 18:38 10,4 C 9,4 C 98 % 1002,2 hPa 0,0 l/m 0 min 2 min 0,0 UV-I 0 W/m 10,3 km/h (2 Bft)
06.11.2013 18:40 10,4 C 9,4 C 98 % 1002,2 hPa 0,0 l/m 0 min 2 min 0,0 UV-I 0 W/m 0,0 km/h (0 Bft)
06.11.2013 18:42 10,4 C 9,4 C 98 % 1002,2 hPa 0,0 l/m 0 min 0 min 0,0 UV-I 0 W/m 0,0 km/h (0 Bft)
06.11.2013 18:44 10,4 C 9,4 C 98 % 1002,2 hPa 0,0 l/m 0 min 0 min 0,0 UV-I 0 W/m 0,0 km/h (0 Bft)
06.11.2013 18:46 10,4 C 9,4 C 99 % 1002,2 hPa 0,0 l/m 0 min 2 min 0,0 UV-I 0 W/m 0,0 km/h (0 Bft)
06.11.2013 18:48 10,4 C 9,4 C 99 % 1002,2 hPa 0,0 l/m 0 min 2 min 0,0 UV-I 0 W/m 0,0 km/h (0 Bft)
06.11.2013 18:50 10,5 C 9,4 C 98 % 1002,2 hPa 0,2 l/m 0 min 2 min 0,0 UV-I 0 W/m 5,1 km/h (1 Bft)
06.11.2013 18:52 10,5 C 9,4 C 98 % 1002,2 hPa 0,0 l/m 0 min 2 min 0,0 UV-I 0 W/m 0,0 km/h (0 Bft)
06.11.2013 18:54 10,5 C 9,4 C 98 % 1002,2 hPa 0,0 l/m 0 min 2 min 0,0 UV-I 0 W/m 0,0 km/h (0 Bft)
06.11.2013 18:56 10,5 C 9,4 C 98 % 1002,3 hPa 0,0 l/m 0 min 2 min 0,0 UV-I 0 W/m 0,0 km/h (0 Bft)
06.11.2013 18:58 10,5 C 9,4 C 98 % 1002,3 hPa 0,0 l/m 0 min 2 min 0,0 UV-I 0 W/m 0,0 km/h (0 Bft)
06.11.2013 19:00 10,6 C 9,4 C 98 % 1002,2 hPa 0,0 l/m 0 min 2 min 0,0 UV-I 0 W/m 5,1 km/h (1 Bft)
06.11.2013 19:02 10,6 C 9,4 C 98 % 1002,2 hPa 0,2 l/m 0 min 2 min 0,0 UV-I 0 W/m 5,1 km/h (1 Bft)
06.11.2013 19:04 10,6 C 9,4 C 99 % 1002,2 hPa 0,0 l/m 0 min 2 min 0,0 UV-I 0 W/m 0,0 km/h (0 Bft)
06.11.2013 19:06 10,6 C 9,4 C 99 % 1002,2 hPa 0,0 l/m 0 min 2 min 0,0 UV-I 0 W/m 0,0 km/h (0 Bft)
06.11.2013 19:08 10,6 C 9,4 C 99 % 1002,2 hPa 0,0 l/m 0 min 2 min 0,0 UV-I 0 W/m 2,6 km/h (1 Bft)
06.11.2013 19:10 10,6 C 9,4 C 99 % 1002,2 hPa 0,2 l/m 0 min 2 min 0,0 UV-I 0 W/m 0,0 km/h (0 Bft)
06.11.2013 19:12 10,6 C 9,4 C 99 % 1002,1 hPa 0,0 l/m 0 min 2 min 0,0 UV-I 0 W/m 0,0 km/h (0 Bft)
06.11.2013 19:14 10,6 C 9,4 C 99 % 1002,2 hPa 0,0 l/m 0 min 2 min 0,0 UV-I 0 W/m 0,0 km/h (0 Bft)
06.11.2013 19:16 10,6 C 9,4 C 99 % 1002,2 hPa 0,0 l/m 0 min 2 min 0,0 UV-I 0 W/m 0,0 km/h (0 Bft)
06.11.2013 19:18 10,6 C 9,4 C 99 % 1002,1 hPa 0,0 l/m 0 min 2 min 0,0 UV-I 0 W/m 0,0 km/h (0 Bft)
06.11.2013 19:20 10,6 C 9,4 C 99 % 1002,1 hPa 0,2 l/m 0 min 2 min 0,0 UV-I 0 W/m 0,0 km/h (0 Bft)
06.11.2013 19:22 10,6 C 9,4 C 99 % 1002,1 hPa 0,0 l/m 0 min 2 min 0,0 UV-I 0 W/m 0,0 km/h (0 Bft)
06.11.2013 19:24 10,6 C 9,4 C 99 % 1002,1 hPa 0,2 l/m 0 min 2 min 0,0 UV-I 0 W/m 5,1 km/h (1 Bft)
06.11.2013 19:26 10,7 C 9,4 C 99 % 1002,0 hPa 0,0 l/m 0 min 2 min 0,0 UV-I 0 W/m 0,0 km/h (0 Bft)
06.11.2013 19:28 10,7 C 9,4 C 99 % 1002,1 hPa 0,0 l/m 0 min 2 min 0,0 UV-I 0 W/m 5,1 km/h (1 Bft)
06.11.2013 19:30 10,6 C 9,4 C 99 % 1002,0 hPa 0,0 l/m 0 min 2 min 0,0 UV-I 0 W/m 10,3 km/h (2 Bft)
06.11.2013 19:32 10,7 C 9,4 C 99 % 1002,0 hPa 0,0 l/m 0 min 2 min 0,0 UV-I 0 W/m 7,7 km/h (2 Bft)
06.11.2013 19:34 10,7 C 9,4 C 99 % 1002,0 hPa 0,2 l/m 0 min 2 min 0,0 UV-I 0 W/m 7,7 km/h (2 Bft)
06.11.2013 19:36 10,7 C 9,4 C 99 % 1002,1 hPa 0,0 l/m 0 min 2 min 0,0 UV-I 0 W/m 0,0 km/h (0 Bft)
06.11.2013 19:38 10,7 C 9,4 C 99 % 1002,1 hPa 0,0 l/m 0 min 2 min 0,0 UV-I 0 W/m 0,0 km/h (0 Bft)
06.11.2013 19:40 10,7 C 9,4 C 99 % 1002,1 hPa 0,0 l/m 0 min 0 min 0,0 UV-I 0 W/m 0,0 km/h (0 Bft)
06.11.2013 19:42 10,7 C 9,4 C 99 % 1002,1 hPa 0,0 l/m 0 min 0 min 0,0 UV-I 0 W/m 2,6 km/h (1 Bft)
06.11.2013 19:44 10,7 C 9,4 C 99 % 1002,0 hPa 0,0 l/m 0 min 2 min 0,0 UV-I 0 W/m 0,0 km/h (0 Bft)
06.11.2013 19:46 10,7 C 9,4 C 99 % 1002,0 hPa 0,0 l/m 0 min 2 min 0,0 UV-I 0 W/m 0,0 km/h (0 Bft)
06.11.2013 19:48 10,7 C 9,4 C 99 % 1002,0 hPa 0,0 l/m 0 min 0 min 0,0 UV-I 0 W/m 2,6 km/h (1 Bft)
06.11.2013 19:50 10,8 C 9,4 C 99 % 1002,1 hPa 0,0 l/m 0 min 0 min 0,0 UV-I 0 W/m 0,0 km/h (0 Bft)
06.11.2013 19:52 10,8 C 9,4 C 99 % 1002,1 hPa 0,0 l/m 0 min 0 min 0,0 UV-I 0 W/m 0,0 km/h (0 Bft)
06.11.2013 19:54 10,8 C 9,4 C 99 % 1001,9 hPa 0,0 l/m 0 min 0 min 0,0 UV-I 0 W/m 0,0 km/h (0 Bft)
06.11.2013 19:56 10,8 C 9,4 C 99 % 1001,9 hPa 0,0 l/m 0 min 0 min 0,0 UV-I 0 W/m 2,6 km/h (1 Bft)
06.11.2013 19:58 10,9 C 9,4 C 99 % 1001,9 hPa 0,0 l/m 0 min 0 min 0,0 UV-I 0 W/m 0,0 km/h (0 Bft)
06.11.2013 20:00 10,9 C 10,0 C 99 % 1001,9 hPa 0,0 l/m 0 min 0 min 0,0 UV-I 0 W/m 0,0 km/h (0 Bft)
06.11.2013 20:02 10,9 C 9,4 C 99 % 1002,0 hPa 0,0 l/m 0 min 0 min 0,0 UV-I 0 W/m 0,0 km/h (0 Bft)
06.11.2013 20:04 11,0 C 10,0 C 99 % 1001,8 hPa 0,0 l/m 0 min 0 min 0,0 UV-I 0 W/m 7,7 km/h (2 Bft)
06.11.2013 20:06 11,1 C 10,0 C 99 % 1001,9 hPa 0,0 l/m 0 min 0 min 0,0 UV-I 0 W/m 0,0 km/h (0 Bft)
06.11.2013 20:08 11,1 C 10,0 C 99 % 1002,0 hPa 0,0 l/m 0 min 0 min 0,0 UV-I 0 W/m 5,1 km/h (1 Bft)
06.11.2013 20:10 11,2 C 10,0 C 99 % 1001,9 hPa 0,0 l/m 0 min 0 min 0,0 UV-I 0 W/m 5,1 km/h (1 Bft)
06.11.2013 20:12 11,3 C 10,0 C 99 % 1002,0 hPa 0,0 l/m 0 min 0 min 0,0 UV-I 0 W/m 5,1 km/h (1 Bft)
06.11.2013 20:14 11,4 C 10,0 C 99 % 1002,0 hPa 0,0 l/m 0 min 0 min 0,0 UV-I 0 W/m 2,6 km/h (1 Bft)
06.11.2013 20:16 11,5 C 10,6 C 99 % 1002,0 hPa 0,0 l/m 0 min 0 min 0,0 UV-I 0 W/m 5,1 km/h (1 Bft)
06.11.2013 20:18 11,6 C 10,6 C 99 % 1001,9 hPa 0,0 l/m 0 min 0 min 0,0 UV-I 0 W/m 5,1 km/h (1 Bft)
06.11.2013 20:20 11,7 C 10,6 C 99 % 1002,0 hPa 0,0 l/m 0 min 0 min 0,0 UV-I 0 W/m 7,7 km/h (2 Bft)
06.11.2013 20:22 11,9 C 11,1 C 99 % 1002,0 hPa 0,0 l/m 0 min 0 min 0,0 UV-I 0 W/m 10,3 km/h (2 Bft)
06.11.2013 20:24 12,1 C 11,1 C 99 % 1001,9 hPa 0,0 l/m 0 min 0 min 0,0 UV-I 0 W/m 15,4 km/h (3 Bft)
06.11.2013 20:26 12,2 C 11,1 C 99 % 1002,0 hPa 0,0 l/m 0 min 0 min 0,0 UV-I 0 W/m 18,0 km/h (3 Bft)
06.11.2013 20:28 12,3 C 11,1 C 99 % 1001,9 hPa 0,0 l/m 0 min 2 min 0,0 UV-I 0 W/m 12,9 km/h (3 Bft)
06.11.2013 20:30 12,4 C 11,1 C 99 % 1001,9 hPa 0,0 l/m 0 min 0 min 0,0 UV-I 0 W/m 18,0 km/h (3 Bft)
06.11.2013 20:32 12,5 C 11,7 C 99 % 1002,0 hPa 0,0 l/m 0 min 0 min 0,0 UV-I 0 W/m 7,7 km/h (2 Bft)
06.11.2013 20:34 12,6 C 11,7 C 99 % 1001,9 hPa 0,0 l/m 0 min 0 min 0,0 UV-I 0 W/m 12,9 km/h (3 Bft)
06.11.2013 20:36 12,6 C 11,7 C 99 % 1001,9 hPa 0,0 l/m 0 min 0 min 0,0 UV-I 0 W/m 25,7 km/h (4 Bft)
06.11.2013 20:38 12,7 C 11,7 C 99 % 1002,0 hPa 0,0 l/m 0 min 0 min 0,0 UV-I 0 W/m 7,7 km/h (2 Bft)
06.11.2013 20:40 12,7 C 11,7 C 99 % 1002,1 hPa 0,0 l/m 0 min 0 min 0,0 UV-I 0 W/m 15,4 km/h (3 Bft)
06.11.2013 20:42 12,7 C 11,7 C 99 % 1002,0 hPa 0,0 l/m 0 min 0 min 0,0 UV-I 0 W/m 23,2 km/h (4 Bft)
06.11.2013 20:44 12,8 C 11,7 C 99 % 1002,0 hPa 0,0 l/m 0 min 0 min 0,0 UV-I 0 W/m 10,3 km/h (2 Bft)
06.11.2013 20:46 12,8 C 11,7 C 99 % 1001,9 hPa 0,0 l/m 0 min 0 min 0,0 UV-I 0 W/m 25,7 km/h (4 Bft)
06.11.2013 20:48 12,8 C 11,7 C 99 % 1002,0 hPa 0,0 l/m 0 min 0 min 0,0 UV-I 0 W/m 25,7 km/h (4 Bft)
06.11.2013 20:50 12,8 C 11,7 C 99 % 1002,1 hPa 0,0 l/m 0 min 0 min 0,0 UV-I 0 W/m 20,6 km/h (4 Bft)
06.11.2013 20:52 12,8 C 11,7 C 99 % 1001,9 hPa 0,0 l/m 0 min 0 min 0,0 UV-I 0 W/m 18,0 km/h (3 Bft)
06.11.2013 20:54 12,9 C 11,7 C 99 % 1002,0 hPa 0,0 l/m 0 min 0 min 0,0 UV-I 0 W/m 23,2 km/h (4 Bft)
06.11.2013 20:56 12,9 C 11,7 C 99 % 1002,1 hPa 0,0 l/m 0 min 2 min 0,0 UV-I 0 W/m 15,4 km/h (3 Bft)
06.11.2013 20:58 12,9 C 11,7 C 99 % 1002,0 hPa 0,0 l/m 0 min 0 min 0,0 UV-I 0 W/m 15,4 km/h (3 Bft)
06.11.2013 21:00 12,9 C 11,7 C 99 % 1002,1 hPa 0,0 l/m 0 min 0 min 0,0 UV-I 0 W/m 25,7 km/h (4 Bft)
06.11.2013 21:02 12,9 C 11,7 C 99 % 1002,1 hPa 0,0 l/m 0 min 0 min 0,0 UV-I 0 W/m 18,0 km/h (3 Bft)
06.11.2013 21:04 12,9 C 11,7 C 99 % 1002,0 hPa 0,0 l/m 0 min 0 min 0,0 UV-I 0 W/m 18,0 km/h (3 Bft)
06.11.2013 21:06 13,0 C 11,7 C 99 % 1002,0 hPa 0,0 l/m 0 min 2 min 0,0 UV-I 0 W/m 20,6 km/h (4 Bft)
06.11.2013 21:08 13,0 C 11,7 C 99 % 1002,1 hPa 0,0 l/m 0 min 0 min 0,0 UV-I 0 W/m 25,7 km/h (4 Bft)
06.11.2013 21:10 13,0 C 11,7 C 99 % 1002,1 hPa 0,0 l/m 0 min 0 min 0,0 UV-I 0 W/m 10,3 km/h (2 Bft)
06.11.2013 21:12 13,0 C 11,7 C 99 % 1001,8 hPa 0,0 l/m 0 min 0 min 0,0 UV-I 0 W/m 18,0 km/h (3 Bft)
06.11.2013 21:14 13,0 C 11,7 C 99 % 1002,0 hPa 0,0 l/m 0 min 0 min 0,0 UV-I 0 W/m 18,0 km/h (3 Bft)
06.11.2013 21:16 13,0 C 11,7 C 99 % 1001,9 hPa 0,0 l/m 0 min 0 min 0,0 UV-I 0 W/m 20,6 km/h (4 Bft)
06.11.2013 21:18 13,0 C 11,7 C 99 % 1001,9 hPa 0,0 l/m 0 min 0 min 0,0 UV-I 0 W/m 20,6 km/h (4 Bft)
06.11.2013 21:20 12,9 C 11,7 C 99 % 1001,9 hPa 0,0 l/m 0 min 0 min 0,0 UV-I 0 W/m 18,0 km/h (3 Bft)
06.11.2013 21:22 12,9 C 11,7 C 99 % 1002,0 hPa 0,0 l/m 0 min 0 min 0,0 UV-I 0 W/m 7,7 km/h (2 Bft)
06.11.2013 21:24 12,9 C 11,1 C 99 % 1002,0 hPa 0,0 l/m 0 min 0 min 0,0 UV-I 0 W/m 7,7 km/h (2 Bft)
06.11.2013 21:26 12,9 C 11,1 C 99 % 1001,9 hPa 0,0 l/m 0 min 0 min 0,0 UV-I 0 W/m 18,0 km/h (3 Bft)
06.11.2013 21:28 12,9 C 11,1 C 99 % 1002,0 hPa 0,0 l/m 0 min 0 min 0,0 UV-I 0 W/m 12,9 km/h (3 Bft)
06.11.2013 21:30 12,9 C 11,1 C 99 % 1002,0 hPa 0,0 l/m 0 min 0 min 0,0 UV-I 0 W/m 20,6 km/h (4 Bft)
06.11.2013 21:32 12,9 C 11,1 C 99 % 1002,4 hPa 0,0 l/m 0 min 0 min 0,0 UV-I 0 W/m 18,0 km/h (3 Bft)
06.11.2013 21:34 12,9 C 11,1 C 99 % 1002,1 hPa 0,0 l/m 0 min 0 min 0,0 UV-I 0 W/m 12,9 km/h (3 Bft)
06.11.2013 21:36 12,9 C 11,1 C 99 % 1002,0 hPa 0,0 l/m 0 min 0 min 0,0 UV-I 0 W/m 20,6 km/h (4 Bft)
06.11.2013 21:38 12,9 C 11,1 C 99 % 1002,1 hPa 0,0 l/m 0 min 0 min 0,0 UV-I 0 W/m 25,7 km/h (4 Bft)
06.11.2013 21:40 12,9 C 11,1 C 99 % 1002,0 hPa 0,0 l/m 0 min 0 min 0,0 UV-I 0 W/m 18,0 km/h (3 Bft)
06.11.2013 21:42 12,9 C 11,1 C 99 % 1002,2 hPa 0,0 l/m 0 min 0 min 0,0 UV-I 0 W/m 12,9 km/h (3 Bft)
06.11.2013 21:44 12,9 C 11,1 C 99 % 1002,3 hPa 0,0 l/m 0 min 0 min 0,0 UV-I 0 W/m 15,4 km/h (3 Bft)
06.11.2013 21:46 12,9 C 11,1 C 99 % 1002,2 hPa 0,0 l/m 0 min 0 min 0,0 UV-I 0 W/m 25,7 km/h (4 Bft)
06.11.2013 21:48 12,9 C 11,1 C 99 % 1002,2 hPa 0,0 l/m 0 min 0 min 0,0 UV-I 0 W/m 20,6 km/h (4 Bft)
06.11.2013 21:50 12,9 C 11,1 C 99 % 1002,3 hPa 0,0 l/m 0 min 0 min 0,0 UV-I 0 W/m 15,4 km/h (3 Bft)
06.11.2013 21:52 12,9 C 11,1 C 99 % 1002,2 hPa 0,0 l/m 0 min 0 min 0,0 UV-I 0 W/m 28,3 km/h (4 Bft)
06.11.2013 21:54 12,9 C 11,1 C 99 % 1002,2 hPa 0,0 l/m 0 min 0 min 0,0 UV-I 0 W/m 15,4 km/h (3 Bft)
06.11.2013 21:56 13,0 C 11,1 C 99 % 1002,1 hPa 0,0 l/m 0 min 0 min 0,0 UV-I 0 W/m 28,3 km/h (4 Bft)
06.11.2013 21:58 13,0 C 11,1 C 99 % 1002,2 hPa 0,0 l/m 0 min 0 min 0,0 UV-I 0 W/m 28,3 km/h (4 Bft)
06.11.2013 22:00 13,0 C 11,1 C 99 % 1002,1 hPa 0,0 l/m 0 min 0 min 0,0 UV-I 0 W/m 12,9 km/h (3 Bft)
06.11.2013 22:02 13,1 C 11,1 C 99 % 1002,2 hPa 0,0 l/m 0 min 0 min 0,0 UV-I 0 W/m 15,4 km/h (3 Bft)
06.11.2013 22:04 13,1 C 11,1 C 99 % 1002,3 hPa 0,0 l/m 0 min 0 min 0,0 UV-I 0 W/m 30,9 km/h (5 Bft)
06.11.2013 22:06 13,1 C 11,1 C 99 % 1002,1 hPa 0,0 l/m 0 min 0 min 0,0 UV-I 0 W/m 18,0 km/h (3 Bft)
06.11.2013 22:08 13,1 C 11,1 C 99 % 1002,1 hPa 0,0 l/m 0 min 0 min 0,0 UV-I 0 W/m 12,9 km/h (3 Bft)
06.11.2013 22:10 13,1 C 11,1 C 99 % 1002,0 hPa 0,0 l/m 0 min 0 min 0,0 UV-I 0 W/m 25,7 km/h (4 Bft)
06.11.2013 22:12 13,1 C 11,1 C 99 % 1002,0 hPa 0,0 l/m 0 min 0 min 0,0 UV-I 0 W/m 18,0 km/h (3 Bft)
06.11.2013 22:14 13,1 C 11,1 C 99 % 1002,0 hPa 0,0 l/m 0 min 0 min 0,0 UV-I 0 W/m 20,6 km/h (4 Bft)
06.11.2013 22:16 13,2 C 11,1 C 99 % 1002,1 hPa 0,0 l/m 0 min 0 min 0,0 UV-I 0 W/m 23,2 km/h (4 Bft)
06.11.2013 22:18 13,2 C 11,1 C 99 % 1002,1 hPa 0,0 l/m 0 min 0 min 0,0 UV-I 0 W/m 15,4 km/h (3 Bft)
06.11.2013 22:20 13,2 C 11,1 C 99 % 1001,9 hPa 0,0 l/m 0 min 0 min 0,0 UV-I 0 W/m 15,4 km/h (3 Bft)
06.11.2013 22:22 13,1 C 11,1 C 99 % 1001,7 hPa 0,0 l/m 0 min 0 min 0,0 UV-I 0 W/m 12,9 km/h (3 Bft)
06.11.2013 22:24 13,2 C 11,1 C 99 % 1001,7 hPa 0,0 l/m 0 min 0 min 0,0 UV-I 0 W/m 15,4 km/h (3 Bft)
06.11.2013 22:26 13,1 C 11,1 C 99 % 1001,8 hPa 0,0 l/m 0 min 0 min 0,0 UV-I 0 W/m 23,2 km/h (4 Bft)
06.11.2013 22:28 13,2 C 11,1 C 99 % 1002,0 hPa 0,0 l/m 0 min 0 min 0,0 UV-I 0 W/m 25,7 km/h (4 Bft)
06.11.2013 22:30 13,2 C 11,1 C 98 % 1001,8 hPa 0,0 l/m 0 min 0 min 0,0 UV-I 0 W/m 23,2 km/h (4 Bft)
06.11.2013 22:32 13,2 C 11,1 C 98 % 1002,0 hPa 0,0 l/m 0 min 0 min 0,0 UV-I 0 W/m 15,4 km/h (3 Bft)
06.11.2013 22:34 13,2 C 11,1 C 98 % 1001,9 hPa 0,0 l/m 0 min 0 min 0,0 UV-I 0 W/m 12,9 km/h (3 Bft)
06.11.2013 22:36 13,2 C 11,1 C 98 % 1002,0 hPa 0,0 l/m 0 min 0 min 0,0 UV-I 0 W/m 25,7 km/h (4 Bft)
06.11.2013 22:38 13,2 C 11,1 C 98 % 1002,1 hPa 0,0 l/m 0 min 0 min 0,0 UV-I 0 W/m 23,2 km/h (4 Bft)
06.11.2013 22:40 13,3 C 11,1 C 98 % 1002,0 hPa 0,0 l/m 0 min 0 min 0,0 UV-I 0 W/m 20,6 km/h (4 Bft)
06.11.2013 22:42 13,3 C 11,1 C 97 % 1002,0 hPa 0,0 l/m 0 min 0 min 0,0 UV-I 0 W/m 18,0 km/h (3 Bft)
06.11.2013 22:44 13,3 C 11,1 C 97 % 1001,8 hPa 0,0 l/m 0 min 0 min 0,0 UV-I 0 W/m 30,9 km/h (5 Bft)
06.11.2013 22:46 13,3 C 11,1 C 97 % 1002,0 hPa 0,0 l/m 0 min 0 min 0,0 UV-I 0 W/m 15,4 km/h (3 Bft)
06.11.2013 22:48 13,3 C 11,1 C 97 % 1002,1 hPa 0,0 l/m 0 min 0 min 0,0 UV-I 0 W/m 25,7 km/h (4 Bft)
06.11.2013 22:50 13,3 C 11,1 C 97 % 1001,9 hPa 0,0 l/m 0 min 0 min 0,0 UV-I 0 W/m 20,6 km/h (4 Bft)
06.11.2013 22:52 13,3 C 11,1 C 96 % 1002,0 hPa 0,0 l/m 0 min 0 min 0,0 UV-I 0 W/m 23,2 km/h (4 Bft)
06.11.2013 22:54 13,3 C 11,1 C 96 % 1001,8 hPa 0,0 l/m 0 min 0 min 0,0 UV-I 0 W/m 20,6 km/h (4 Bft)
06.11.2013 22:56 13,4 C 11,1 C 96 % 1001,8 hPa 0,0 l/m 0 min 0 min 0,0 UV-I 0 W/m 15,4 km/h (3 Bft)
06.11.2013 22:58 13,4 C 11,1 C 95 % 1002,1 hPa 0,0 l/m 0 min 0 min 0,0 UV-I 0 W/m 18,0 km/h (3 Bft)
06.11.2013 23:00 13,4 C 11,1 C 95 % 1002,1 hPa 0,0 l/m 0 min 0 min 0,0 UV-I 0 W/m 18,0 km/h (3 Bft)
06.11.2013 23:02 13,4 C 11,1 C 95 % 1002,1 hPa 0,0 l/m 0 min 0 min 0,0 UV-I 0 W/m 20,6 km/h (4 Bft)
06.11.2013 23:04 13,5 C 11,1 C 94 % 1002,1 hPa 0,0 l/m 0 min 0 min 0,0 UV-I 0 W/m 20,6 km/h (4 Bft)
06.11.2013 23:06 13,5 C 11,1 C 94 % 1002,1 hPa 0,0 l/m 0 min 0 min 0,0 UV-I 0 W/m 23,2 km/h (4 Bft)
06.11.2013 23:08 13,5 C 11,1 C 94 % 1001,9 hPa 0,0 l/m 0 min 0 min 0,0 UV-I 0 W/m 12,9 km/h (3 Bft)
06.11.2013 23:10 13,6 C 11,1 C 94 % 1002,0 hPa 0,0 l/m 0 min 0 min 0,0 UV-I 0 W/m 15,4 km/h (3 Bft)
06.11.2013 23:12 13,6 C 11,1 C 93 % 1002,1 hPa 0,0 l/m 0 min 0 min 0,0 UV-I 0 W/m 20,6 km/h (4 Bft)
06.11.2013 23:14 13,6 C 11,1 C 93 % 1002,1 hPa 0,0 l/m 0 min 0 min 0,0 UV-I 0 W/m 36,0 km/h (5 Bft)
06.11.2013 23:16 13,6 C 11,1 C 93 % 1001,9 hPa 0,0 l/m 0 min 0 min 0,0 UV-I 0 W/m 20,6 km/h (4 Bft)
06.11.2013 23:18 13,6 C 11,1 C 93 % 1001,7 hPa 0,0 l/m 0 min 0 min 0,0 UV-I 0 W/m 23,2 km/h (4 Bft)
06.11.2013 23:20 13,6 C 11,1 C 92 % 1001,6 hPa 0,0 l/m 0 min 0 min 0,0 UV-I 0 W/m 25,7 km/h (4 Bft)
06.11.2013 23:22 13,6 C 11,1 C 92 % 1001,8 hPa 0,0 l/m 0 min 0 min 0,0 UV-I 0 W/m 33,5 km/h (5 Bft)
06.11.2013 23:24 13,7 C 11,1 C 92 % 1001,7 hPa 0,0 l/m 0 min 0 min 0,0 UV-I 0 W/m 20,6 km/h (4 Bft)
06.11.2013 23:26 13,7 C 11,1 C 92 % 1001,8 hPa 0,0 l/m 0 min 0 min 0,0 UV-I 0 W/m 20,6 km/h (4 Bft)
06.11.2013 23:28 13,7 C 11,1 C 92 % 1001,7 hPa 0,0 l/m 0 min 0 min 0,0 UV-I 0 W/m 18,0 km/h (3 Bft)
06.11.2013 23:30 13,7 C 11,1 C 92 % 1001,7 hPa 0,0 l/m 0 min 0 min 0,0 UV-I 0 W/m 23,2 km/h (4 Bft)
06.11.2013 23:32 13,7 C 11,1 C 92 % 1001,8 hPa 0,0 l/m 0 min 0 min 0,0 UV-I 0 W/m 20,6 km/h (4 Bft)
06.11.2013 23:34 13,7 C 11,1 C 92 % 1001,8 hPa 0,0 l/m 0 min 0 min 0,0 UV-I 0 W/m 18,0 km/h (3 Bft)
06.11.2013 23:36 13,7 C 11,1 C 92 % 1001,9 hPa 0,0 l/m 0 min 0 min 0,0 UV-I 0 W/m 25,7 km/h (4 Bft)
06.11.2013 23:38 13,7 C 11,7 C 91 % 1001,9 hPa 0,0 l/m 0 min 0 min 0,0 UV-I 0 W/m 33,5 km/h (5 Bft)
06.11.2013 23:40 13,7 C 11,1 C 91 % 1002,0 hPa 0,0 l/m 0 min 0 min 0,0 UV-I 0 W/m 28,3 km/h (4 Bft)
06.11.2013 23:42 13,7 C 11,7 C 91 % 1002,0 hPa 0,0 l/m 0 min 0 min 0,0 UV-I 0 W/m 20,6 km/h (4 Bft)
06.11.2013 23:44 13,7 C 11,7 C 91 % 1002,1 hPa 0,0 l/m 0 min 0 min 0,0 UV-I 0 W/m 23,2 km/h (4 Bft)
06.11.2013 23:46 13,7 C 11,7 C 91 % 1002,0 hPa 0,0 l/m 0 min 0 min 0,0 UV-I 0 W/m 28,3 km/h (4 Bft)
06.11.2013 23:48 13,7 C 11,7 C 91 % 1002,1 hPa 0,0 l/m 0 min 0 min 0,0 UV-I 0 W/m 25,7 km/h (4 Bft)
06.11.2013 23:50 13,8 C 11,7 C 91 % 1002,0 hPa 0,0 l/m 0 min 0 min 0,0 UV-I 0 W/m 12,9 km/h (3 Bft)
06.11.2013 23:52 13,8 C 11,7 C 90 % 1002,1 hPa 0,0 l/m 0 min 0 min 0,0 UV-I 0 W/m 23,2 km/h (4 Bft)
06.11.2013 23:54 13,8 C 11,7 C 90 % 1002,0 hPa 0,0 l/m 0 min 0 min 0,0 UV-I 0 W/m 18,0 km/h (3 Bft)
06.11.2013 23:56 13,8 C 11,7 C 90 % 1002,0 hPa 0,0 l/m 0 min 0 min 0,0 UV-I 0 W/m 15,4 km/h (3 Bft)
06.11.2013 23:58 13,8 C 11,7 C 90 % 1002,2 hPa 0,0 l/m 0 min 0 min 0,0 UV-I 0 W/m 20,6 km/h (4 Bft)
_ Min-Zeit 02:44 00:50 11:48 00:00 - - - - - 00:02
Minimum _ 7,4 C 5,6 C 85 % 994,6 hPa - - - - - 0,0 km/h (0 Bft)
_ Max-Zeit 23:50 20:32 18:46 21:32 01:54 10:14 00:28 00:00 10:18 23:14
Maximum _ 13,8 C 11,7 C 99 % 1002,4 hPa 0,2 l/m 2 min 2 min 0,0 UV-I 255 W/m 36,0 km/h
S (5 Bft)
Durchschnitt _ 9,8 C 8,3 C 94 % 1000,5 hPa #3,0 l/m #6 min. #6:02 h 0,0 UV-I 66 W/m 10,2 km/h (2 Bft)
© 2013 W. Hausmann